Time,TemperatureF,DewpointF,PressureIn,WindDirection,WindDirectionDegrees,WindSpeedMPH,WindSpeedGustMPH,Humidity,HourlyPrecipIn,Conditions,Clouds,dailyrainin,SoftwareType,DateUTC
2013-05-23 00:00:00,60.8,54.6,29.84,SE,137,3.0,10.0,80,0.00,,---,0.00,VWS V14.00,2013-05-23 07:00:00,
2013-05-23 00:04:00,60.8,54.6,29.84,SE,146,7.0,8.0,80,0.00,,---,0.00,VWS V14.00,2013-05-23 07:04:00,
2013-05-23 00:05:00,60.8,54.3,29.84,SE,136,2.0,8.0,79,0.00,,---,0.00,VWS V14.00,2013-05-23 07:05:00,
2013-05-23 00:06:00,60.8,54.6,29.84,SSE,164,4.0,9.0,80,0.00,,---,0.00,VWS V14.00,2013-05-23 07:06:00,
2013-05-23 00:08:00,60.8,55.0,29.84,SE,144,3.0,10.0,80,0.00,,,0.00,weatherlink.com 1.10,2013-05-23 07:08:00,
2013-05-23 00:09:00,60.8,54.6,29.84,SSE,147,13.0,13.0,80,0.00,,---,0.00,VWS V14.00,2013-05-23 07:09:00,
2013-05-23 00:11:00,60.8,54.3,29.84,SSE,158,3.0,13.0,79,0.00,,---,0.00,VWS V14.00,2013-05-23 07:11:00,
2013-05-23 00:12:00,60.8,54.3,29.84,SE,144,2.0,13.0,79,0.00,,---,0.00,VWS V14.00,2013-05-23 07:12:00,
2013-05-23 00:14:00,60.8,54.3,29.84,SSE,155,6.0,13.0,79,0.00,,---,0.00,VWS V14.00,2013-05-23 07:14:00,
2013-05-23 00:15:00,60.8,54.6,29.83,SSW,195,4.0,13.0,80,0.00,,---,0.00,VWS V14.00,2013-05-23 07:15:00,
2013-05-23 00:16:00,60.8,54.9,29.83,South,188,4.0,13.0,81,0.00,,---,0.00,VWS V14.00,2013-05-23 07:16:00,
2013-05-23 00:17:00,60.8,54.9,29.83,SE,144,5.0,13.0,81,0.00,,---,0.00,VWS V14.00,2013-05-23 07:17:00,
2013-05-23 00:18:00,60.9,55.4,29.83,South,186,3.0,13.0,82,0.00,,---,0.00,VWS V14.00,2013-05-23 07:18:00,
2013-05-23 00:20:00,60.9,55.4,29.83,South,171,2.0,13.0,82,0.00,,---,0.00,VWS V14.00,2013-05-23 07:20:00,
2013-05-23 00:21:00,60.9,55.4,29.83,South,184,1.0,13.0,82,0.00,,---,0.00,VWS V14.00,2013-05-23 07:21:00,
2013-05-23 00:22:00,60.9,55.4,29.83,South,173,3.0,13.0,82,0.00,,---,0.00,VWS V14.00,2013-05-23 07:22:00,
2013-05-23 00:23:00,60.8,55.6,29.83,SSE,150,3.0,13.0,83,0.00,,---,0.00,VWS V14.00,2013-05-23 07:23:00,
2013-05-23 00:25:00,60.7,55.2,29.83,South,185,2.0,13.0,82,0.00,,---,0.00,VWS V14.00,2013-05-23 07:25:00,
2013-05-23 00:26:00,60.7,55.2,29.83,SSE,159,1.0,13.0,82,0.00,,---,0.00,VWS V14.00,2013-05-23 07:26:00,
2013-05-23 00:27:00,60.7,55.5,29.83,SSW,194,4.0,13.0,83,0.00,,---,0.00,VWS V14.00,2013-05-23 07:27:00,
2013-05-23 00:29:00,60.5,55.3,29.83,SSW,195,3.0,13.0,83,0.00,,---,0.00,VWS V14.00,2013-05-23 07:29:00,
2013-05-23 00:30:00,60.4,55.2,29.83,South,179,1.0,13.0,83,0.00,,---,0.00,VWS V14.00,2013-05-23 07:30:00,
2013-05-23 00:31:00,60.4,55.2,29.83,South,172,2.0,4.0,83,0.00,,---,0.00,VWS V14.00,2013-05-23 07:31:00,
2013-05-23 00:32:00,60.4,55.2,29.83,SW,217,1.0,6.0,83,0.00,,---,0.00,VWS V14.00,2013-05-23 07:32:00,
2013-05-23 00:33:00,60.4,55.2,29.83,SSE,168,1.0,6.0,83,0.00,,---,0.00,VWS V14.00,2013-05-23 07:33:00,
2013-05-23 00:34:00,60.3,55.1,29.83,South,171,1.0,6.0,83,0.00,,---,0.00,VWS V14.00,2013-05-23 07:34:00,
2013-05-23 00:37:00,60.2,55.0,29.83,South,171,3.0,6.0,83,0.00,,---,0.00,VWS V14.00,2013-05-23 07:37:00,
2013-05-23 00:39:00,60.1,55.3,29.83,SSW,193,6.0,7.0,84,0.00,,---,0.00,VWS V14.00,2013-05-23 07:39:00,
2013-05-23 00:40:00,60.0,55.2,29.83,South,173,3.0,7.0,84,0.00,,---,0.00,VWS V14.00,2013-05-23 07:40:00,
2013-05-23 00:42:00,60.0,55.2,29.83,South,178,1.0,7.0,84,0.00,,---,0.00,VWS V14.00,2013-05-23 07:42:00,
2013-05-23 00:43:00,60.0,55.2,29.83,South,169,0.0,7.0,84,0.00,,---,0.00,VWS V14.00,2013-05-23 07:43:00,
2013-05-23 00:45:00,59.9,55.1,29.83,South,172,4.0,7.0,84,0.00,,---,0.00,VWS V14.00,2013-05-23 07:45:00,
2013-05-23 00:46:00,59.9,55.1,29.83,South,184,4.0,7.0,84,0.00,,---,0.00,VWS V14.00,2013-05-23 07:46:00,
2013-05-23 00:48:00,59.9,55.1,29.83,SSW,213,1.0,7.0,84,0.00,,---,0.00,VWS V14.00,2013-05-23 07:48:00,
2013-05-23 00:50:00,59.9,55.1,29.83,SSE,167,3.0,7.0,84,0.00,,---,0.00,VWS V14.00,2013-05-23 07:50:00,
2013-05-23 00:52:00,59.9,55.1,29.83,SSE,153,4.0,7.0,84,0.00,,---,0.00,VWS V14.00,2013-05-23 07:52:00,
2013-05-23 00:56:00,59.9,55.1,29.83,SW,215,5.0,7.0,84,0.00,,---,0.00,VWS V14.00,2013-05-23 07:56:00,
2013-05-23 00:57:00,59.9,55.1,29.83,South,189,5.0,7.0,84,0.00,,---,0.00,VWS V14.00,2013-05-23 07:57:00,
2013-05-23 00:58:00,59.8,55.0,29.83,South,169,1.0,7.0,84,0.00,,---,0.00,VWS V14.00,2013-05-23 07:58:00,
2013-05-23 01:00:00,59.9,55.1,29.83,South,176,6.0,7.0,84,0.00,,---,0.00,VWS V14.00,2013-05-23 08:00:00,
2013-05-23 01:02:00,59.9,55.1,29.83,SW,219,3.0,6.0,84,0.00,,---,0.00,VWS V14.00,2013-05-23 08:02:00,
2013-05-23 01:03:00,59.9,55.1,29.83,South,181,5.0,6.0,84,0.00,,---,0.00,VWS V14.00,2013-05-23 08:03:00,
2013-05-23 01:05:00,59.9,55.1,29.83,South,169,4.0,6.0,84,0.00,,---,0.00,VWS V14.00,2013-05-23 08:05:00,
2013-05-23 01:08:00,59.9,55.1,29.83,SSE,161,2.0,8.0,84,0.00,,---,0.00,VWS V14.00,2013-05-23 08:08:00,
2013-05-23 01:09:00,59.9,55.1,29.83,SSE,168,4.0,8.0,84,0.00,,---,0.00,VWS V14.00,2013-05-23 08:09:00,
2013-05-23 01:10:00,59.9,55.1,29.83,South,188,7.0,8.0,84,0.00,,---,0.00,VWS V14.00,2013-05-23 08:10:00,
2013-05-23 01:11:00,59.8,54.6,29.83,SSE,155,2.0,8.0,83,0.00,,---,0.00,VWS V14.00,2013-05-23 08:11:00,
2013-05-23 01:13:00,59.8,54.6,29.83,SSE,165,6.0,8.0,83,0.00,,---,0.00,VWS V14.00,2013-05-23 08:13:00,
2013-05-23 01:14:00,59.8,55.0,29.83,SSW,195,4.0,8.0,84,0.00,,---,0.00,VWS V14.00,2013-05-23 08:14:00,
2013-05-23 01:15:00,59.8,55.0,29.83,South,184,6.0,8.0,84,0.00,,---,0.00,VWS V14.00,2013-05-23 08:15:00,
2013-05-23 01:17:00,59.8,54.6,29.83,SSE,155,4.0,8.0,83,0.00,,---,0.00,VWS V14.00,2013-05-23 08:17:00,
2013-05-23 01:18:00,59.7,54.5,29.83,SSW,209,2.0,8.0,83,0.00,,---,0.00,VWS V14.00,2013-05-23 08:18:00,
2013-05-23 01:20:00,59.7,54.5,29.83,South,180,5.0,8.0,83,0.00,,---,0.00,VWS V14.00,2013-05-23 08:20:00,
2013-05-23 01:21:00,59.6,54.4,29.83,South,181,5.0,8.0,83,0.00,,---,0.00,VWS V14.00,2013-05-23 08:21:00,
2013-05-23 01:24:00,59.6,54.4,29.83,South,190,5.0,8.0,83,0.00,,---,0.00,VWS V14.00,2013-05-23 08:24:00,
2013-05-23 01:26:00,59.5,54.7,29.83,SSW,197,1.0,8.0,84,0.00,,---,0.00,VWS V14.00,2013-05-23 08:26:00,
2013-05-23 01:27:00,59.5,54.7,29.83,SSW,194,3.0,8.0,84,0.00,,---,0.00,VWS V14.00,2013-05-23 08:27:00,
2013-05-23 01:29:00,59.5,54.7,29.83,South,175,1.0,8.0,84,0.00,,---,0.00,VWS V14.00,2013-05-23 08:29:00,
2013-05-23 01:30:00,59.5,54.7,29.83,South,173,1.0,8.0,84,0.00,,---,0.00,VWS V14.00,2013-05-23 08:30:00,
2013-05-23 01:34:00,59.4,54.2,29.83,SSW,211,5.0,7.0,83,0.00,,---,0.00,VWS V14.00,2013-05-23 08:34:00,
2013-05-23 01:35:00,59.4,54.2,29.83,SSW,210,2.0,7.0,83,0.00,,---,0.00,VWS V14.00,2013-05-23 08:35:00,
2013-05-23 01:36:00,59.4,54.2,29.83,SW,223,0.0,7.0,83,0.00,,---,0.00,VWS V14.00,2013-05-23 08:36:00,
2013-05-23 01:37:00,59.4,54.2,29.83,SSE,161,3.0,7.0,83,0.00,,---,0.00,VWS V14.00,2013-05-23 08:37:00,
2013-05-23 01:40:00,59.4,54.2,29.83,South,176,3.0,7.0,83,0.00,,---,0.00,VWS V14.00,2013-05-23 08:40:00,
2013-05-23 01:41:00,59.4,54.2,29.83,SSE,163,3.0,7.0,83,0.00,,---,0.00,VWS V14.00,2013-05-23 08:41:00,
2013-05-23 01:42:00,59.4,54.2,29.83,South,175,2.0,7.0,83,0.00,,---,0.00,VWS V14.00,2013-05-23 08:42:00,
2013-05-23 01:46:00,59.3,54.2,29.83,SSE,161,4.0,8.0,83,0.00,,---,0.00,VWS V14.00,2013-05-23 08:46:00,
2013-05-23 01:47:00,59.3,54.2,29.83,SSE,158,1.0,8.0,83,0.00,,---,0.00,VWS V14.00,2013-05-23 08:47:00,
2013-05-23 01:48:00,59.3,54.2,29.83,South,178,2.0,8.0,83,0.00,,---,0.00,VWS V14.00,2013-05-23 08:48:00,
2013-05-23 01:49:00,59.3,54.2,29.83,SSE,159,5.0,8.0,83,0.00,,---,0.00,VWS V14.00,2013-05-23 08:49:00,
2013-05-23 01:53:00,59.3,54.2,29.83,South,183,2.0,8.0,83,0.00,,---,0.00,VWS V14.00,2013-05-23 08:53:00,
2013-05-23 01:54:00,59.3,54.2,29.83,South,184,0.0,8.0,83,0.00,,---,0.00,VWS V14.00,2013-05-23 08:54:00,
2013-05-23 01:55:00,59.3,54.2,29.83,South,184,2.0,8.0,83,0.00,,---,0.00,VWS V14.00,2013-05-23 08:55:00,
2013-05-23 01:59:00,59.3,54.2,29.83,SE,142,1.0,8.0,83,0.00,,---,0.00,VWS V14.00,2013-05-23 08:59:00,
2013-05-23 02:00:00,59.3,54.2,29.83,SSW,196,4.0,8.0,83,0.00,,---,0.00,VWS V14.00,2013-05-23 09:00:00,
2013-05-23 02:01:00,59.3,54.2,29.83,South,177,0.0,2.0,83,0.00,,---,0.00,VWS V14.00,2013-05-23 09:01:00,
2013-05-23 02:04:00,59.2,54.0,29.83,South,175,3.0,6.0,83,0.00,,---,0.00,VWS V14.00,2013-05-23 09:04:00,
2013-05-23 02:05:00,59.2,54.0,29.83,SSW,213,6.0,6.0,83,0.00,,---,0.00,VWS V14.00,2013-05-23 09:05:00,
2013-05-23 02:06:00,59.2,53.7,29.83,South,180,1.0,7.0,82,0.00,,---,0.00,VWS V14.00,2013-05-23 09:06:00,
2013-05-23 02:07:00,59.2,53.7,29.83,SSE,149,5.0,7.0,82,0.00,,---,0.00,VWS V14.00,2013-05-23 09:07:00,
2013-05-23 02:10:00,59.2,54.0,29.83,South,183,2.0,7.0,83,0.00,,---,0.00,VWS V14.00,2013-05-23 09:10:00,
2013-05-23 02:11:00,59.2,53.7,29.83,South,176,4.0,7.0,82,0.00,,---,0.00,VWS V14.00,2013-05-23 09:11:00,
2013-05-23 02:13:00,59.2,53.7,29.83,SE,145,6.0,7.0,82,0.00,,---,0.00,VWS V14.00,2013-05-23 09:13:00,
2013-05-23 02:15:00,59.1,53.6,29.83,SSE,153,7.0,8.0,82,0.00,,---,0.00,VWS V14.00,2013-05-23 09:15:00,
2013-05-23 02:17:00,59.1,53.6,29.83,SSW,194,6.0,8.0,82,0.00,,---,0.00,VWS V14.00,2013-05-23 09:17:00,
2013-05-23 02:18:00,59.0,53.5,29.83,SSW,213,5.0,8.0,82,0.00,,---,0.00,VWS V14.00,2013-05-23 09:18:00,
2013-05-23 02:20:00,59.0,53.5,29.83,SSE,150,1.0,8.0,82,0.00,,---,0.00,VWS V14.00,2013-05-23 09:20:00,
2013-05-23 02:21:00,59.0,53.5,29.83,South,176,3.0,8.0,82,0.00,,---,0.00,VWS V14.00,2013-05-23 09:21:00,
2013-05-23 02:22:00,59.0,53.5,29.83,SW,220,1.0,8.0,82,0.00,,---,0.00,VWS V14.00,2013-05-23 09:22:00,
2013-05-23 02:23:00,59.1,53.6,29.83,SSW,194,2.0,8.0,82,0.00,,---,0.00,VWS V14.00,2013-05-23 09:23:00,
2013-05-23 02:24:00,59.1,53.6,29.83,South,180,4.0,8.0,82,0.00,,---,0.00,VWS V14.00,2013-05-23 09:24:00,
2013-05-23 02:27:00,59.0,53.5,29.83,South,180,7.0,8.0,82,0.00,,---,0.00,VWS V14.00,2013-05-23 09:27:00,
2013-05-23 02:28:00,58.9,53.4,29.83,SSW,198,1.0,8.0,82,0.00,,---,0.00,VWS V14.00,2013-05-23 09:28:00,
2013-05-23 02:29:00,58.9,53.4,29.83,South,172,3.0,8.0,82,0.00,,---,0.00,VWS V14.00,2013-05-23 09:29:00,
2013-05-23 02:30:00,58.9,53.4,29.83,SSW,192,0.0,8.0,82,0.00,,---,0.00,VWS V14.00,2013-05-23 09:30:00,
2013-05-23 02:32:00,58.9,53.4,29.83,SSE,168,0.0,3.0,82,0.00,,---,0.00,VWS V14.00,2013-05-23 09:32:00,
2013-05-23 02:33:00,58.9,53.4,29.83,South,177,3.0,4.0,82,0.00,,---,0.00,VWS V14.00,2013-05-23 09:33:00,
2013-05-23 02:34:00,58.9,53.4,29.83,South,184,1.0,4.0,82,0.00,,---,0.00,VWS V14.00,2013-05-23 09:34:00,
2013-05-23 02:37:00,58.8,53.3,29.83,SE,141,4.0,6.0,82,0.00,,---,0.00,VWS V14.00,2013-05-23 09:37:00,
2013-05-23 02:38:00,58.8,53.3,29.83,SE,144,3.0,6.0,82,0.00,,---,0.00,VWS V14.00,2013-05-23 09:38:00,
2013-05-23 02:39:00,58.8,53.3,29.83,SSE,163,3.0,6.0,82,0.00,,---,0.00,VWS V14.00,2013-05-23 09:39:00,
2013-05-23 02:40:00,58.7,53.2,29.83,South,178,1.0,6.0,82,0.00,,---,0.00,VWS V14.00,2013-05-23 09:40:00,
2013-05-23 02:43:00,58.7,53.2,29.83,SSE,165,3.0,6.0,82,0.00,,---,0.00,VWS V14.00,2013-05-23 09:43:00,
2013-05-23 02:44:00,58.7,53.0,29.83,South,191,1.0,6.0,82,0.00,,,0.00,weatherlink.com 1.10,2013-05-23 09:44:00,
2013-05-23 02:46:00,58.7,53.2,29.83,South,187,2.0,6.0,82,0.00,,---,0.00,VWS V14.00,2013-05-23 09:46:00,
2013-05-23 02:49:00,58.7,53.2,29.83,South,174,2.0,6.0,82,0.00,,---,0.00,VWS V14.00,2013-05-23 09:49:00,
2013-05-23 02:50:00,58.7,53.2,29.83,South,174,0.0,6.0,82,0.00,,---,0.00,VWS V14.00,2013-05-23 09:50:00,
2013-05-23 02:52:00,58.7,53.2,29.83,SSE,165,1.0,6.0,82,0.00,,---,0.00,VWS V14.00,2013-05-23 09:52:00,
2013-05-23 02:53:00,58.7,53.2,29.83,SSE,165,0.0,6.0,82,0.00,,---,0.00,VWS V14.00,2013-05-23 09:53:00,
2013-05-23 02:55:00,58.7,53.2,29.83,South,176,1.0,6.0,82,0.00,,---,0.00,VWS V14.00,2013-05-23 09:55:00,
2013-05-23 02:56:00,58.7,53.2,29.83,SSE,162,1.0,6.0,82,0.00,,---,0.00,VWS V14.00,2013-05-23 09:56:00,
2013-05-23 02:57:00,58.7,53.2,29.83,South,187,2.0,6.0,82,0.00,,---,0.00,VWS V14.00,2013-05-23 09:57:00,
2013-05-23 02:58:00,58.7,53.2,29.83,South,186,0.0,6.0,82,0.00,,---,0.00,VWS V14.00,2013-05-23 09:58:00,
2013-05-23 03:00:00,58.7,52.9,29.83,SSE,153,4.0,6.0,81,0.00,,---,0.00,VWS V14.00,2013-05-23 10:00:00,
2013-05-23 03:01:00,58.7,52.9,29.83,SSE,153,4.0,4.0,81,0.00,,---,0.00,VWS V14.00,2013-05-23 10:01:00,
2013-05-23 03:04:00,58.6,52.8,29.83,SSW,197,0.0,4.0,81,0.00,,---,0.00,VWS V14.00,2013-05-23 10:04:00,
2013-05-23 03:05:00,58.6,52.8,29.83,SSW,194,2.0,4.0,81,0.00,,---,0.00,VWS V14.00,2013-05-23 10:05:00,
2013-05-23 03:06:00,58.6,53.1,29.83,South,186,2.0,4.0,82,0.00,,---,0.00,VWS V14.00,2013-05-23 10:06:00,
2013-05-23 03:07:00,58.6,53.1,29.83,South,171,4.0,4.0,82,0.00,,---,0.00,VWS V14.00,2013-05-23 10:07:00,
2013-05-23 03:09:00,58.6,53.1,29.83,SSE,153,1.0,4.0,82,0.00,,---,0.00,VWS V14.00,2013-05-23 10:09:00,
2013-05-23 03:10:00,58.6,53.1,29.83,SSE,158,2.0,4.0,82,0.00,,---,0.00,VWS V14.00,2013-05-23 10:10:00,
2013-05-23 03:13:00,58.7,53.2,29.83,South,178,2.0,5.0,82,0.00,,---,0.00,VWS V14.00,2013-05-23 10:13:00,
2013-05-23 03:15:00,58.7,53.2,29.82,SSE,148,4.0,5.0,82,0.00,,---,0.00,VWS V14.00,2013-05-23 10:15:00,
2013-05-23 03:16:00,58.7,53.2,29.82,South,176,3.0,5.0,82,0.00,,---,0.00,VWS V14.00,2013-05-23 10:16:00,
2013-05-23 03:17:00,58.6,53.1,29.82,SSE,154,4.0,6.0,82,0.00,,---,0.00,VWS V14.00,2013-05-23 10:17:00,
2013-05-23 03:19:00,58.6,53.1,29.82,South,173,0.0,6.0,82,0.00,,---,0.00,VWS V14.00,2013-05-23 10:19:00,
2013-05-23 03:20:00,58.6,53.1,29.82,South,172,2.0,6.0,82,0.00,,---,0.00,VWS V14.00,2013-05-23 10:20:00,
2013-05-23 03:22:00,58.6,53.1,29.82,South,190,2.0,6.0,82,0.00,,---,0.00,VWS V14.00,2013-05-23 10:22:00,
2013-05-23 03:25:00,58.6,53.1,29.82,SSE,157,3.0,6.0,82,0.00,,---,0.00,VWS V14.00,2013-05-23 10:25:00,
2013-05-23 03:26:00,58.6,53.1,29.82,SSE,167,2.0,6.0,82,0.00,,---,0.00,VWS V14.00,2013-05-23 10:26:00,
2013-05-23 03:28:00,58.6,53.1,29.82,SSE,156,5.0,6.0,82,0.00,,---,0.00,VWS V14.00,2013-05-23 10:28:00,
2013-05-23 03:30:00,58.6,53.1,29.82,SSE,165,2.0,6.0,82,0.00,,---,0.00,VWS V14.00,2013-05-23 10:30:00,
2013-05-23 03:31:00,58.6,53.1,29.82,SSE,163,1.0,3.0,82,0.00,,---,0.00,VWS V14.00,2013-05-23 10:31:00,
2013-05-23 03:33:00,58.5,53.0,29.82,SE,143,2.0,5.0,82,0.00,,---,0.00,VWS V14.00,2013-05-23 10:33:00,
2013-05-23 03:34:00,58.5,53.0,29.82,SSE,153,1.0,5.0,82,0.00,,---,0.00,VWS V14.00,2013-05-23 10:34:00,
2013-05-23 03:35:00,58.5,53.0,29.82,SSE,161,2.0,5.0,82,0.00,,---,0.00,VWS V14.00,2013-05-23 10:35:00,
2013-05-23 03:36:00,58.5,53.0,29.82,SSE,152,2.0,5.0,82,0.00,,---,0.00,VWS V14.00,2013-05-23 10:36:00,
2013-05-23 03:38:00,58.5,53.0,29.82,SSE,155,3.0,5.0,82,0.00,,---,0.00,VWS V14.00,2013-05-23 10:38:00,
2013-05-23 03:39:00,58.5,53.0,29.82,South,184,4.0,5.0,82,0.00,,---,0.00,VWS V14.00,2013-05-23 10:39:00,
2013-05-23 03:40:00,58.5,53.0,29.82,South,180,2.0,5.0,82,0.00,,---,0.00,VWS V14.00,2013-05-23 10:40:00,
2013-05-23 03:41:00,58.5,53.0,29.82,South,185,0.0,5.0,82,0.00,,---,0.00,VWS V14.00,2013-05-23 10:41:00,
2013-05-23 03:45:00,58.4,52.9,29.82,South,171,1.0,6.0,82,0.00,,---,0.00,VWS V14.00,2013-05-23 10:45:00,
2013-05-23 03:46:00,58.4,52.9,29.82,South,171,1.0,6.0,82,0.00,,---,0.00,VWS V14.00,2013-05-23 10:46:00,
2013-05-23 03:47:00,58.4,53.3,29.82,SSE,157,1.0,6.0,83,0.00,,---,0.00,VWS V14.00,2013-05-23 10:47:00,
2013-05-23 03:51:00,58.4,53.3,29.82,SSW,194,0.0,6.0,83,0.00,,---,0.00,VWS V14.00,2013-05-23 10:51:00,
2013-05-23 03:52:00,58.4,53.3,29.82,SSW,195,1.0,6.0,83,0.00,,---,0.00,VWS V14.00,2013-05-23 10:52:00,
2013-05-23 03:53:00,58.4,53.3,29.82,SSE,167,2.0,6.0,83,0.00,,---,0.00,VWS V14.00,2013-05-23 10:53:00,
2013-05-23 03:54:00,58.4,53.3,29.82,SE,138,0.0,6.0,83,0.00,,---,0.00,VWS V14.00,2013-05-23 10:54:00,
2013-05-23 03:56:00,58.4,53.3,29.82,SW,217,2.0,6.0,83,0.00,,---,0.00,VWS V14.00,2013-05-23 10:56:00,
2013-05-23 03:57:00,58.4,53.3,29.82,SSW,200,3.0,6.0,83,0.00,,---,0.00,VWS V14.00,2013-05-23 10:57:00,
2013-05-23 03:58:00,58.4,53.3,29.82,SSW,196,3.0,6.0,83,0.00,,---,0.00,VWS V14.00,2013-05-23 10:58:00,
2013-05-23 03:59:00,58.4,53.3,29.82,SSW,196,2.0,6.0,83,0.00,,---,0.00,VWS V14.00,2013-05-23 10:59:00,
2013-05-23 04:00:00,58.4,53.3,29.82,SSE,159,3.0,6.0,83,0.00,,---,0.00,VWS V14.00,2013-05-23 11:00:00,
2013-05-23 04:01:00,58.4,53.3,29.82,SSE,148,3.0,3.0,83,0.00,,---,0.00,VWS V14.00,2013-05-23 11:01:00,
2013-05-23 04:03:00,58.4,53.3,29.82,SSE,163,5.0,6.0,83,0.00,,---,0.00,VWS V14.00,2013-05-23 11:03:00,
2013-05-23 04:04:00,58.4,53.3,29.82,SSE,159,5.0,6.0,83,0.00,,---,0.00,VWS V14.00,2013-05-23 11:04:00,
2013-05-23 04:07:00,58.4,53.3,29.82,SE,146,4.0,7.0,83,0.00,,---,0.00,VWS V14.00,2013-05-23 11:07:00,
2013-05-23 04:08:00,58.4,53.3,29.82,SE,142,4.0,7.0,83,0.00,,---,0.00,VWS V14.00,2013-05-23 11:08:00,
2013-05-23 04:09:00,58.3,53.2,29.82,SSE,165,4.0,7.0,83,0.00,,---,0.00,VWS V14.00,2013-05-23 11:09:00,
2013-05-23 04:11:00,58.3,53.2,29.82,South,186,4.0,7.0,83,0.00,,---,0.00,VWS V14.00,2013-05-23 11:11:00,
2013-05-23 04:12:00,58.3,53.2,29.82,SE,146,2.0,7.0,83,0.00,,---,0.00,VWS V14.00,2013-05-23 11:12:00,
2013-05-23 04:13:00,58.3,53.2,29.82,SE,143,3.0,7.0,83,0.00,,---,0.00,VWS V14.00,2013-05-23 11:13:00,
2013-05-23 04:14:00,58.3,53.2,29.82,SE,134,3.0,7.0,83,0.00,,---,0.00,VWS V14.00,2013-05-23 11:14:00,
2013-05-23 04:16:00,58.3,53.2,29.82,SE,146,7.0,7.0,83,0.00,,---,0.00,VWS V14.00,2013-05-23 11:16:00,
2013-05-23 04:19:00,58.3,53.2,29.82,South,172,4.0,7.0,83,0.00,,---,0.00,VWS V14.00,2013-05-23 11:19:00,
2013-05-23 04:20:00,58.3,53.2,29.82,South,171,4.0,7.0,83,0.00,,---,0.00,VWS V14.00,2013-05-23 11:20:00,
2013-05-23 04:22:00,58.3,53.2,29.82,SSW,192,5.0,7.0,83,0.00,,---,0.00,VWS V14.00,2013-05-23 11:22:00,
2013-05-23 04:23:00,58.3,53.2,29.82,SSE,165,5.0,7.0,83,0.00,,---,0.00,VWS V14.00,2013-05-23 11:23:00,
2013-05-23 04:25:00,58.3,53.5,29.82,SSW,198,3.0,7.0,84,0.00,,---,0.00,VWS V14.00,2013-05-23 11:25:00,
2013-05-23 04:26:00,58.3,53.5,29.82,South,188,6.0,7.0,84,0.00,,---,0.00,VWS V14.00,2013-05-23 11:26:00,
2013-05-23 04:28:00,58.3,53.2,29.82,SE,145,3.0,7.0,83,0.00,,---,0.00,VWS V14.00,2013-05-23 11:28:00,
2013-05-23 04:30:00,58.3,53.5,29.82,SSE,163,3.0,7.0,84,0.00,,---,0.00,VWS V14.00,2013-05-23 11:30:00,
2013-05-23 04:31:00,58.3,53.5,29.82,SSE,148,2.0,5.0,84,0.00,,---,0.00,VWS V14.00,2013-05-23 11:31:00,
2013-05-23 04:32:00,58.3,53.5,29.82,South,181,4.0,5.0,84,0.00,,---,0.00,VWS V14.00,2013-05-23 11:32:00,
2013-05-23 04:33:00,58.3,53.5,29.82,SSE,152,2.0,7.0,84,0.00,,---,0.00,VWS V14.00,2013-05-23 11:33:00,
2013-05-23 04:34:00,58.3,53.5,29.82,SSE,161,1.0,7.0,84,0.00,,---,0.00,VWS V14.00,2013-05-23 11:34:00,
2013-05-23 04:37:00,58.3,53.5,29.82,SSW,196,4.0,7.0,84,0.00,,---,0.00,VWS V14.00,2013-05-23 11:37:00,
2013-05-23 04:39:00,58.3,53.5,29.82,South,169,1.0,7.0,84,0.00,,---,0.00,VWS V14.00,2013-05-23 11:39:00,
2013-05-23 04:40:00,58.3,53.5,29.82,SSE,153,2.0,7.0,84,0.00,,---,0.00,VWS V14.00,2013-05-23 11:40:00,
2013-05-23 04:42:00,58.3,53.5,29.82,SE,143,3.0,7.0,84,0.00,,---,0.00,VWS V14.00,2013-05-23 11:42:00,
2013-05-23 04:43:00,58.2,53.4,29.82,SSE,161,0.0,7.0,84,0.00,,---,0.00,VWS V14.00,2013-05-23 11:43:00,
2013-05-23 04:44:00,58.2,53.4,29.82,SSE,161,0.0,7.0,84,0.00,,---,0.00,VWS V14.00,2013-05-23 11:44:00,
2013-05-23 04:45:00,58.2,53.4,29.82,South,177,3.0,7.0,84,0.00,,---,0.00,VWS V14.00,2013-05-23 11:45:00,
2013-05-23 04:47:00,58.2,53.4,29.82,South,182,3.0,7.0,84,0.00,,---,0.00,VWS V14.00,2013-05-23 11:47:00,
2013-05-23 04:48:00,58.2,53.4,29.82,South,171,2.0,7.0,84,0.00,,---,0.00,VWS V14.00,2013-05-23 11:48:00,
2013-05-23 04:50:00,58.2,53.4,29.82,SSE,152,4.0,7.0,84,0.00,,---,0.00,VWS V14.00,2013-05-23 11:50:00,
2013-05-23 04:53:00,58.2,53.4,29.82,SSW,207,2.0,7.0,84,0.00,,---,0.00,VWS V14.00,2013-05-23 11:53:00,
2013-05-23 04:55:00,58.2,53.4,29.82,South,175,2.0,7.0,84,0.00,,---,0.00,VWS V14.00,2013-05-23 11:55:00,
2013-05-23 04:56:00,58.2,53.4,29.82,SSE,164,1.0,7.0,84,0.00,,---,0.00,VWS V14.00,2013-05-23 11:56:00,
2013-05-23 04:57:00,58.2,53.4,29.82,SSE,165,0.0,7.0,84,0.00,,---,0.00,VWS V14.00,2013-05-23 11:57:00,
2013-05-23 04:59:00,58.2,53.4,29.82,SSW,203,4.0,7.0,84,0.00,,---,0.00,VWS V14.00,2013-05-23 11:59:00,
2013-05-23 05:00:00,58.2,53.4,29.83,South,182,1.0,7.0,84,0.00,,---,0.00,VWS V14.00,2013-05-23 12:00:00,
2013-05-23 05:01:00,58.2,53.4,29.83,South,182,1.0,2.0,84,0.00,,---,0.00,VWS V14.00,2013-05-23 12:01:00,
2013-05-23 05:02:00,58.2,53.4,29.83,South,182,0.0,2.0,84,0.00,,---,0.00,VWS V14.00,2013-05-23 12:02:00,
2013-05-23 05:04:00,58.2,53.4,29.83,South,189,2.0,6.0,84,0.00,,---,0.00,VWS V14.00,2013-05-23 12:04:00,
2013-05-23 05:05:00,58.2,53.4,29.83,SSW,200,4.0,6.0,84,0.00,,---,0.00,VWS V14.00,2013-05-23 12:05:00,
2013-05-23 05:07:00,58.2,53.4,29.83,SSE,168,3.0,6.0,84,0.00,,---,0.00,VWS V14.00,2013-05-23 12:07:00,
2013-05-23 05:10:00,58.2,53.4,29.83,South,180,0.0,6.0,84,0.00,,---,0.00,VWS V14.00,2013-05-23 12:10:00,
2013-05-23 05:12:00,58.2,53.4,29.83,South,180,0.0,6.0,84,0.00,,---,0.00,VWS V14.00,2013-05-23 12:12:00,
2013-05-23 05:14:00,58.1,53.3,29.83,South,178,3.0,6.0,84,0.00,,---,0.00,VWS V14.00,2013-05-23 12:14:00,
2013-05-23 05:15:00,58.2,53.4,29.83,SSW,194,1.0,6.0,84,0.00,,---,0.00,VWS V14.00,2013-05-23 12:15:00,
2013-05-23 05:16:00,58.2,53.4,29.83,SSW,193,1.0,6.0,84,0.00,,---,0.00,VWS V14.00,2013-05-23 12:16:00,
2013-05-23 05:18:00,58.2,53.4,29.83,SSW,193,1.0,6.0,84,0.00,,---,0.00,VWS V14.00,2013-05-23 12:18:00,
2013-05-23 05:19:00,58.2,53.4,29.83,SSW,193,0.0,6.0,84,0.00,,---,0.00,VWS V14.00,2013-05-23 12:19:00,
2013-05-23 05:21:00,58.2,53.4,29.83,SE,146,4.0,6.0,84,0.00,,---,0.00,VWS V14.00,2013-05-23 12:21:00,
2013-05-23 05:23:00,58.2,53.4,29.83,South,190,2.0,6.0,84,0.00,,---,0.00,VWS V14.00,2013-05-23 12:23:00,
2013-05-23 05:24:00,58.3,53.5,29.83,SSE,161,4.0,6.0,84,0.00,,---,0.00,VWS V14.00,2013-05-23 12:24:00,
2013-05-23 05:26:00,58.3,53.5,29.83,South,172,2.0,6.0,84,0.00,,---,0.00,VWS V14.00,2013-05-23 12:26:00,
2013-05-23 05:29:00,58.3,53.5,29.83,SSE,158,1.0,6.0,84,0.00,,---,0.00,VWS V14.00,2013-05-23 12:29:00,
2013-05-23 05:30:00,58.3,53.5,29.83,SE,146,3.0,6.0,84,0.00,,---,0.00,VWS V14.00,2013-05-23 12:30:00,
2013-05-23 05:31:00,58.3,53.5,29.83,South,169,2.0,3.0,84,0.00,,---,0.00,VWS V14.00,2013-05-23 12:31:00,
2013-05-23 05:34:00,58.4,53.6,29.83,SSW,201,2.0,4.0,84,0.00,,---,0.00,VWS V14.00,2013-05-23 12:34:00,
2013-05-23 05:35:00,58.4,53.6,29.83,SSW,202,0.0,4.0,84,0.00,,---,0.00,VWS V14.00,2013-05-23 12:35:00,
2013-05-23 05:37:00,58.4,53.6,29.83,South,174,2.0,4.0,84,0.00,,---,0.00,VWS V14.00,2013-05-23 12:37:00,
2013-05-23 05:40:00,58.4,53.6,29.83,SSE,160,2.0,5.0,84,0.00,,---,0.00,VWS V14.00,2013-05-23 12:40:00,
2013-05-23 05:41:00,58.4,53.6,29.83,SSE,151,0.0,5.0,84,0.00,,---,0.00,VWS V14.00,2013-05-23 12:41:00,
2013-05-23 05:43:00,58.4,53.6,29.83,South,173,0.0,5.0,84,0.00,,---,0.00,VWS V14.00,2013-05-23 12:43:00,
2013-05-23 05:46:00,58.4,53.6,29.83,SSE,155,3.0,5.0,84,0.00,,---,0.00,VWS V14.00,2013-05-23 12:46:00,
2013-05-23 05:47:00,58.4,53.6,29.83,SSE,153,3.0,5.0,84,0.00,,---,0.00,VWS V14.00,2013-05-23 12:47:00,
2013-05-23 05:48:00,58.4,53.6,29.83,SSE,147,1.0,5.0,84,0.00,,---,0.00,VWS V14.00,2013-05-23 12:48:00,
2013-05-23 05:49:00,58.4,53.6,29.83,South,180,3.0,5.0,84,0.00,,---,0.00,VWS V14.00,2013-05-23 12:49:00,
2013-05-23 05:52:00,58.3,53.5,29.83,SE,146,1.0,5.0,84,0.00,,---,0.00,VWS V14.00,2013-05-23 12:52:00,
2013-05-23 05:53:00,58.3,53.5,29.83,ESE,115,2.0,5.0,84,0.00,,---,0.00,VWS V14.00,2013-05-23 12:53:00,
2013-05-23 05:54:00,58.3,53.5,29.83,SSE,158,2.0,5.0,84,0.00,,---,0.00,VWS V14.00,2013-05-23 12:54:00,
2013-05-23 05:58:00,58.3,53.5,29.83,SSE,149,1.0,5.0,84,0.00,,---,0.00,VWS V14.00,2013-05-23 12:58:00,
2013-05-23 05:59:00,58.3,53.5,29.83,South,185,1.0,5.0,84,0.00,,---,0.00,VWS V14.00,2013-05-23 12:59:00,
2013-05-23 06:00:00,58.4,53.6,29.84,South,184,1.0,5.0,84,0.00,,---,0.00,VWS V14.00,2013-05-23 13:00:00,
2013-05-23 06:04:00,58.4,53.6,29.84,SSE,165,0.0,3.0,84,0.00,,---,0.00,VWS V14.00,2013-05-23 13:04:00,
2013-05-23 06:05:00,58.4,53.6,29.84,SSE,165,1.0,3.0,84,0.00,,---,0.00,VWS V14.00,2013-05-23 13:05:00,
2013-05-23 06:06:00,58.4,53.6,29.84,SSE,165,0.0,3.0,84,0.00,,---,0.00,VWS V14.00,2013-05-23 13:06:00,
2013-05-23 06:08:00,58.4,53.6,29.84,SSE,148,0.0,5.0,84,0.00,,---,0.00,VWS V14.00,2013-05-23 13:08:00,
2013-05-23 06:10:00,58.4,53.6,29.84,South,173,2.0,5.0,84,0.00,,---,0.00,VWS V14.00,2013-05-23 13:10:00,
2013-05-23 06:11:00,58.4,53.6,29.84,South,173,0.0,5.0,84,0.00,,---,0.00,VWS V14.00,2013-05-23 13:11:00,
2013-05-23 06:12:00,58.4,53.6,29.84,South,173,0.0,5.0,84,0.00,,---,0.00,VWS V14.00,2013-05-23 13:12:00,
2013-05-23 06:14:00,58.4,53.6,29.84,SSE,148,2.0,5.0,84,0.00,,---,0.00,VWS V14.00,2013-05-23 13:14:00,
2013-05-23 06:16:00,58.4,53.6,29.84,SE,145,0.0,5.0,84,0.00,,---,0.00,VWS V14.00,2013-05-23 13:16:00,
2013-05-23 06:18:00,58.4,53.6,29.84,SE,145,1.0,5.0,84,0.00,,---,0.00,VWS V14.00,2013-05-23 13:18:00,
2013-05-23 06:19:00,58.5,53.7,29.84,SE,145,0.0,5.0,84,0.00,,---,0.00,VWS V14.00,2013-05-23 13:19:00,
2013-05-23 06:21:00,58.5,53.7,29.84,SE,125,0.0,5.0,84,0.00,,---,0.00,VWS V14.00,2013-05-23 13:21:00,
2013-05-23 06:23:00,58.5,53.7,29.84,SE,126,2.0,5.0,84,0.00,,---,0.00,VWS V14.00,2013-05-23 13:23:00,
2013-05-23 06:24:00,58.6,53.8,29.84,SE,126,0.0,5.0,84,0.00,,---,0.00,VWS V14.00,2013-05-23 13:24:00,
2013-05-23 06:26:00,58.6,53.8,29.84,ESE,122,0.0,5.0,84,0.00,,---,0.00,VWS V14.00,2013-05-23 13:26:00,
2013-05-23 06:29:00,58.6,53.8,29.84,ESE,122,0.0,5.0,84,0.00,,---,0.00,VWS V14.00,2013-05-23 13:29:00,
2013-05-23 06:30:00,58.7,53.9,29.84,SE,125,2.0,5.0,84,0.00,,---,0.00,VWS V14.00,2013-05-23 13:30:00,
2013-05-23 06:32:00,58.7,53.9,29.84,SE,139,1.0,2.0,84,0.00,,---,0.00,VWS V14.00,2013-05-23 13:32:00,
2013-05-23 06:35:00,58.7,53.9,29.84,South,172,1.0,2.0,84,0.00,,---,0.00,VWS V14.00,2013-05-23 13:35:00,
2013-05-23 06:36:00,58.8,54.0,29.84,SSE,168,3.0,3.0,84,0.00,,---,0.00,VWS V14.00,2013-05-23 13:36:00,
2013-05-23 06:39:00,58.8,54.0,29.84,SSE,148,1.0,4.0,84,0.00,,---,0.00,VWS V14.00,2013-05-23 13:39:00,
2013-05-23 06:40:00,58.9,54.1,29.84,SSE,155,2.0,4.0,84,0.00,,---,0.00,VWS V14.00,2013-05-23 13:40:00,
2013-05-23 06:41:00,58.9,54.1,29.84,SSE,162,1.0,4.0,84,0.00,,---,0.00,VWS V14.00,2013-05-23 13:41:00,
2013-05-23 06:42:00,58.9,54.1,29.84,SSE,162,0.0,4.0,84,0.00,,---,0.00,VWS V14.00,2013-05-23 13:42:00,
2013-05-23 06:45:00,59.0,54.2,29.85,South,183,0.0,4.0,84,0.00,,---,0.00,VWS V14.00,2013-05-23 13:45:00,
2013-05-23 06:46:00,59.0,54.2,29.85,South,190,1.0,4.0,84,0.00,,---,0.00,VWS V14.00,2013-05-23 13:46:00,
2013-05-23 06:48:00,59.0,54.2,29.85,South,188,1.0,4.0,84,0.00,,---,0.00,VWS V14.00,2013-05-23 13:48:00,
2013-05-23 06:49:00,59.0,54.2,29.85,SSE,167,5.0,5.0,84,0.00,,---,0.00,VWS V14.00,2013-05-23 13:49:00,
2013-05-23 06:51:00,59.0,54.2,29.85,SSW,204,0.0,5.0,84,0.00,,---,0.00,VWS V14.00,2013-05-23 13:51:00,
2013-05-23 06:52:00,59.0,54.2,29.85,SSW,204,1.0,5.0,84,0.00,,---,0.00,VWS V14.00,2013-05-23 13:52:00,
2013-05-23 06:53:00,59.0,54.2,29.85,SSW,200,0.0,5.0,84,0.00,,---,0.00,VWS V14.00,2013-05-23 13:53:00,
2013-05-23 06:54:00,59.0,54.2,29.85,SSW,200,1.0,5.0,84,0.00,,---,0.00,VWS V14.00,2013-05-23 13:54:00,
2013-05-23 06:56:00,59.1,54.3,29.85,South,184,1.0,5.0,84,0.00,,---,0.00,VWS V14.00,2013-05-23 13:56:00,
2013-05-23 06:58:00,59.1,54.3,29.85,South,184,1.0,5.0,84,0.00,,---,0.00,VWS V14.00,2013-05-23 13:58:00,
2013-05-23 06:59:00,59.2,54.4,29.85,South,184,0.0,5.0,84,0.00,,---,0.00,VWS V14.00,2013-05-23 13:59:00,
2013-05-23 07:00:00,59.2,54.4,29.86,South,184,0.0,5.0,84,0.00,,---,0.00,VWS V14.00,2013-05-23 14:00:00,
2013-05-23 07:01:00,59.2,54.4,29.86,South,184,0.0,0.0,84,0.00,,---,0.00,VWS V14.00,2013-05-23 14:01:00,
2013-05-23 07:02:00,59.3,54.5,29.86,South,184,0.0,1.0,84,0.00,,---,0.00,VWS V14.00,2013-05-23 14:02:00,
2013-05-23 07:05:00,59.3,54.2,29.86,SW,221,2.0,3.0,83,0.00,,---,0.00,VWS V14.00,2013-05-23 14:05:00,
2013-05-23 07:07:00,59.3,54.2,29.86,SW,226,1.0,3.0,83,0.00,,---,0.00,VWS V14.00,2013-05-23 14:07:00,
2013-05-23 07:08:00,59.3,54.2,29.86,SW,226,1.0,3.0,83,0.00,,---,0.00,VWS V14.00,2013-05-23 14:08:00,
2013-05-23 07:11:00,59.4,54.2,29.86,SW,234,1.0,3.0,83,0.00,,---,0.00,VWS V14.00,2013-05-23 14:11:00,
2013-05-23 07:13:00,59.4,54.2,29.86,SW,234,1.0,3.0,83,0.00,,---,0.00,VWS V14.00,2013-05-23 14:13:00,
2013-05-23 07:14:00,59.4,54.6,29.86,SW,228,0.0,3.0,84,0.00,,---,0.00,VWS V14.00,2013-05-23 14:14:00,
2013-05-23 07:15:00,59.5,54.7,29.86,SSW,211,2.0,3.0,84,0.00,,---,0.00,VWS V14.00,2013-05-23 14:15:00,
2013-05-23 07:17:00,59.5,54.7,29.86,SSW,210,2.0,3.0,84,0.00,,---,0.00,VWS V14.00,2013-05-23 14:17:00,
2013-05-23 07:18:00,59.6,54.4,29.86,South,173,1.0,3.0,83,0.00,,---,0.00,VWS V14.00,2013-05-23 14:18:00,
2013-05-23 07:19:00,59.6,54.4,29.86,SSE,166,0.0,3.0,83,0.00,,---,0.00,VWS V14.00,2013-05-23 14:19:00,
2013-05-23 07:20:00,59.6,54.4,29.86,SSE,166,0.0,3.0,83,0.00,,---,0.00,VWS V14.00,2013-05-23 14:20:00,
2013-05-23 07:21:00,59.6,54.4,29.86,SSE,166,0.0,3.0,83,0.00,,---,0.00,VWS V14.00,2013-05-23 14:21:00,
2013-05-23 07:22:00,59.6,54.4,29.86,SSE,166,3.0,3.0,83,0.00,,---,0.00,VWS V14.00,2013-05-23 14:22:00,
2013-05-23 07:24:00,59.6,54.4,29.86,South,188,3.0,5.0,83,0.00,,---,0.00,VWS V14.00,2013-05-23 14:24:00,
2013-05-23 07:25:00,59.6,54.4,29.86,SSE,165,3.0,5.0,83,0.00,,---,0.00,VWS V14.00,2013-05-23 14:25:00,
2013-05-23 07:27:00,59.6,54.4,29.86,SSE,150,1.0,5.0,83,0.00,,---,0.00,VWS V14.00,2013-05-23 14:27:00,
2013-05-23 07:29:00,59.6,54.4,29.86,SSE,151,3.0,5.0,83,0.00,,---,0.00,VWS V14.00,2013-05-23 14:29:00,
2013-05-23 07:30:00,59.6,54.4,29.86,South,181,0.0,5.0,83,0.00,,---,0.00,VWS V14.00,2013-05-23 14:30:00,
2013-05-23 07:31:00,59.6,54.8,29.86,SE,138,2.0,4.0,84,0.00,,---,0.00,VWS V14.00,2013-05-23 14:31:00,
2013-05-23 07:33:00,59.6,54.8,29.86,SE,143,4.0,4.0,84,0.00,,---,0.00,VWS V14.00,2013-05-23 14:33:00,
2013-05-23 07:34:00,59.6,54.8,29.86,SSE,152,3.0,4.0,84,0.00,,---,0.00,VWS V14.00,2013-05-23 14:34:00,
2013-05-23 07:35:00,59.6,54.8,29.86,ESE,116,3.0,5.0,84,0.00,,---,0.00,VWS V14.00,2013-05-23 14:35:00,
2013-05-23 07:36:00,59.6,54.4,29.86,ESE,119,3.0,5.0,83,0.00,,---,0.00,VWS V14.00,2013-05-23 14:36:00,
2013-05-23 07:38:00,59.6,54.4,29.86,SE,134,1.0,6.0,83,0.00,,---,0.00,VWS V14.00,2013-05-23 14:38:00,
2013-05-23 07:39:00,59.6,54.4,29.86,SE,136,2.0,6.0,83,0.00,,---,0.00,VWS V14.00,2013-05-23 14:39:00,
2013-05-23 07:40:00,59.7,54.5,29.86,SE,128,3.0,6.0,83,0.00,,---,0.00,VWS V14.00,2013-05-23 14:40:00,
2013-05-23 07:41:00,59.7,54.5,29.86,SSE,152,3.0,6.0,83,0.00,,---,0.00,VWS V14.00,2013-05-23 14:41:00,
2013-05-23 07:43:00,59.7,54.2,29.86,South,186,3.0,6.0,82,0.00,,---,0.00,VWS V14.00,2013-05-23 14:43:00,
2013-05-23 07:45:00,59.8,54.6,29.86,SSE,156,7.0,7.0,83,0.00,,---,0.00,VWS V14.00,2013-05-23 14:45:00,
2013-05-23 07:46:00,59.8,54.6,29.86,SE,138,5.0,7.0,83,0.00,,---,0.00,VWS V14.00,2013-05-23 14:46:00,
2013-05-23 07:47:00,59.8,54.6,29.86,South,170,1.0,7.0,83,0.00,,---,0.00,VWS V14.00,2013-05-23 14:47:00,
2013-05-23 07:48:00,59.8,55.0,29.86,SSW,192,4.0,7.0,84,0.00,,---,0.00,VWS V14.00,2013-05-23 14:48:00,
2013-05-23 07:49:00,59.8,55.0,29.86,SSE,152,5.0,7.0,84,0.00,,---,0.00,VWS V14.00,2013-05-23 14:49:00,
2013-05-23 07:51:00,59.7,54.9,29.86,ESE,102,3.0,7.0,84,0.00,,---,0.00,VWS V14.00,2013-05-23 14:51:00,
2013-05-23 07:53:00,59.6,54.8,29.86,East,91,6.0,8.0,84,0.00,,---,0.00,VWS V14.00,2013-05-23 14:53:00,
2013-05-23 07:54:00,59.6,55.1,29.86,SSE,153,3.0,8.0,85,0.00,,---,0.00,VWS V14.00,2013-05-23 14:54:00,
2013-05-23 07:56:00,59.4,54.9,29.86,SSE,155,6.0,8.0,85,0.00,,---,0.00,VWS V14.00,2013-05-23 14:56:00,
2013-05-23 07:57:00,59.3,54.8,29.86,SE,146,5.0,8.0,85,0.00,,---,0.00,VWS V14.00,2013-05-23 14:57:00,
2013-05-23 07:59:00,59.2,54.7,29.86,ESE,107,4.0,8.0,85,0.00,,---,0.00,VWS V14.00,2013-05-23 14:59:00,
2013-05-23 08:00:00,59.2,54.7,29.87,South,169,6.0,9.0,85,0.00,,---,0.00,VWS V14.00,2013-05-23 15:00:00,
2013-05-23 08:01:00,59.2,54.7,29.87,SE,141,7.0,9.0,85,0.00,,---,0.00,VWS V14.00,2013-05-23 15:01:00,
2013-05-23 08:02:00,59.3,54.8,29.87,SE,140,5.0,9.0,85,0.00,,---,0.00,VWS V14.00,2013-05-23 15:02:00,
2013-05-23 08:06:00,59.3,54.8,29.87,SE,142,8.0,9.0,85,0.00,,---,0.00,VWS V14.00,2013-05-23 15:06:00,
2013-05-23 08:07:00,59.3,54.8,29.87,SSW,192,6.0,9.0,85,0.00,,---,0.00,VWS V14.00,2013-05-23 15:07:00,
2013-05-23 08:09:00,59.3,54.8,29.87,SSE,162,3.0,9.0,85,0.00,,---,0.00,VWS V14.00,2013-05-23 15:09:00,
2013-05-23 08:11:00,59.3,55.0,29.87,SE,144,4.0,9.0,85,0.00,,,0.00,weatherlink.com 1.10,2013-05-23 15:11:00,
2013-05-23 08:12:00,59.3,54.8,29.87,SE,143,4.0,9.0,85,0.00,,---,0.00,VWS V14.00,2013-05-23 15:12:00,
2013-05-23 08:15:00,59.3,54.8,29.88,ESE,122,4.0,9.0,85,0.00,,---,0.00,VWS V14.00,2013-05-23 15:15:00,
2013-05-23 08:17:00,59.3,54.5,29.88,SE,132,4.0,9.0,84,0.00,,---,0.00,VWS V14.00,2013-05-23 15:17:00,
2013-05-23 08:18:00,59.2,54.4,29.88,SSE,159,3.0,9.0,84,0.00,,---,0.00,VWS V14.00,2013-05-23 15:18:00,
2013-05-23 08:19:00,59.2,54.4,29.88,SSE,150,3.0,9.0,84,0.00,,---,0.00,VWS V14.00,2013-05-23 15:19:00,
2013-05-23 08:21:00,59.3,54.8,29.88,SE,139,5.0,9.0,85,0.00,,---,0.00,VWS V14.00,2013-05-23 15:21:00,
2013-05-23 08:23:00,59.3,54.5,29.88,SSE,153,5.0,12.0,84,0.00,,---,0.00,VWS V14.00,2013-05-23 15:23:00,
2013-05-23 08:24:00,59.3,54.5,29.88,SSE,160,3.0,12.0,84,0.00,,---,0.00,VWS V14.00,2013-05-23 15:24:00,
2013-05-23 08:26:00,59.3,54.5,29.88,SSE,164,1.0,12.0,84,0.00,,---,0.00,VWS V14.00,2013-05-23 15:26:00,
2013-05-23 08:27:00,59.4,54.2,29.88,South,178,1.0,12.0,83,0.00,,---,0.00,VWS V14.00,2013-05-23 15:27:00,
2013-05-23 08:28:00,59.4,54.0,29.88,SSE,161,5.0,12.0,83,0.00,,,0.00,weatherlink.com 1.10,2013-05-23 15:28:00,
2013-05-23 08:29:00,59.4,54.2,29.88,SE,126,3.0,12.0,83,0.00,,---,0.00,VWS V14.00,2013-05-23 15:29:00,
2013-05-23 08:30:00,59.5,54.3,29.89,SSW,197,7.0,12.0,83,0.00,,---,0.00,VWS V14.00,2013-05-23 15:30:00,
2013-05-23 08:31:00,59.5,54.3,29.89,SSE,149,7.0,10.0,83,0.00,,---,0.00,VWS V14.00,2013-05-23 15:31:00,
2013-05-23 08:33:00,59.6,54.1,29.89,SSE,147,5.0,10.0,82,0.00,,---,0.00,VWS V14.00,2013-05-23 15:33:00,
2013-05-23 08:34:00,59.6,54.1,29.89,SE,141,2.0,10.0,82,0.00,,---,0.00,VWS V14.00,2013-05-23 15:34:00,
2013-05-23 08:35:00,59.8,54.3,29.89,ESE,123,4.0,10.0,82,0.00,,---,0.00,VWS V14.00,2013-05-23 15:35:00,
2013-05-23 08:37:00,59.9,54.4,29.89,SSE,158,8.0,10.0,82,0.00,,---,0.00,VWS V14.00,2013-05-23 15:37:00,
2013-05-23 08:39:00,60.0,54.2,29.89,South,185,5.0,11.0,81,0.00,,---,0.00,VWS V14.00,2013-05-23 15:39:00,
2013-05-23 08:41:00,60.1,54.3,29.89,East,101,7.0,11.0,81,0.00,,---,0.00,VWS V14.00,2013-05-23 15:41:00,
2013-05-23 08:42:00,60.1,54.3,29.89,ESE,112,11.0,11.0,81,0.00,,---,0.00,VWS V14.00,2013-05-23 15:42:00,
2013-05-23 08:44:00,60.2,54.0,29.89,SE,142,6.0,12.0,80,0.00,,---,0.00,VWS V14.00,2013-05-23 15:44:00,
2013-05-23 08:46:00,60.3,54.0,29.89,SE,138,7.0,13.0,80,0.00,,,0.00,weatherlink.com 1.10,2013-05-23 15:46:00,
2013-05-23 08:47:00,60.3,54.1,29.89,SE,125,5.0,12.0,80,0.00,,---,0.00,VWS V14.00,2013-05-23 15:47:00,
2013-05-23 08:48:00,60.4,54.2,29.89,SSE,168,2.0,12.0,80,0.00,,---,0.00,VWS V14.00,2013-05-23 15:48:00,
2013-05-23 08:49:00,60.5,54.3,29.89,SSE,161,11.0,12.0,80,0.00,,---,0.00,VWS V14.00,2013-05-23 15:49:00,
2013-05-23 08:51:00,60.6,54.4,29.89,SSE,151,5.0,12.0,80,0.00,,---,0.00,VWS V14.00,2013-05-23 15:51:00,
2013-05-23 08:52:00,60.7,54.2,29.89,South,185,7.0,12.0,79,0.00,,---,0.00,VWS V14.00,2013-05-23 15:52:00,
2013-05-23 08:53:00,60.7,54.2,29.89,SSE,154,8.0,12.0,79,0.00,,---,0.00,VWS V14.00,2013-05-23 15:53:00,
2013-05-23 08:55:00,60.7,54.2,29.89,SE,140,5.0,12.0,79,0.00,,---,0.00,VWS V14.00,2013-05-23 15:55:00,
2013-05-23 08:56:00,60.8,54.3,29.89,SSE,157,8.0,12.0,79,0.00,,---,0.00,VWS V14.00,2013-05-23 15:56:00,
2013-05-23 08:57:00,60.8,54.3,29.89,SSE,147,8.0,12.0,79,0.00,,---,0.00,VWS V14.00,2013-05-23 15:57:00,
2013-05-23 08:58:00,60.8,54.3,29.89,SE,136,5.0,12.0,79,0.00,,---,0.00,VWS V14.00,2013-05-23 15:58:00,
2013-05-23 09:00:00,60.9,54.0,29.89,WSW,237,6.0,12.0,78,0.00,,---,0.00,VWS V14.00,2013-05-23 16:00:00,
2013-05-23 09:02:00,60.9,54.0,29.89,SSE,156,10.0,12.0,78,0.00,,---,0.00,VWS V14.00,2013-05-23 16:02:00,
2013-05-23 09:03:00,60.8,54.0,29.89,SSE,167,4.0,12.0,78,0.00,,,0.00,weatherlink.com 1.10,2013-05-23 16:03:00,
2013-05-23 09:04:00,60.7,53.8,29.89,SE,142,6.0,12.0,78,0.00,,---,0.00,VWS V14.00,2013-05-23 16:04:00,
2013-05-23 09:05:00,60.8,53.9,29.89,SE,139,5.0,12.0,78,0.00,,---,0.00,VWS V14.00,2013-05-23 16:05:00,
2013-05-23 09:08:00,60.8,54.3,29.89,South,175,4.0,12.0,79,0.00,,---,0.00,VWS V14.00,2013-05-23 16:08:00,
2013-05-23 09:09:00,60.8,54.3,29.89,South,178,1.0,12.0,79,0.00,,---,0.00,VWS V14.00,2013-05-23 16:09:00,
2013-05-23 09:10:00,60.9,54.0,29.89,SSW,201,4.0,12.0,78,0.00,,---,0.00,VWS V14.00,2013-05-23 16:10:00,
2013-05-23 09:14:00,61.0,54.1,29.89,SSE,160,5.0,12.0,78,0.00,,---,0.00,VWS V14.00,2013-05-23 16:14:00,
2013-05-23 09:15:00,61.0,53.8,29.90,ESE,109,7.0,12.0,77,0.00,,---,0.00,VWS V14.00,2013-05-23 16:15:00,
2013-05-23 09:16:00,61.1,53.8,29.90,SE,134,5.0,12.0,77,0.00,,---,0.00,VWS V14.00,2013-05-23 16:16:00,
2013-05-23 09:20:00,61.0,53.8,29.90,SSE,159,2.0,12.0,77,0.00,,---,0.00,VWS V14.00,2013-05-23 16:20:00,
2013-05-23 09:21:00,61.1,53.8,29.90,ESE,122,10.0,12.0,77,0.00,,---,0.00,VWS V14.00,2013-05-23 16:21:00,
2013-05-23 09:25:00,60.9,53.7,29.90,SSE,159,5.0,13.0,77,0.00,,---,0.00,VWS V14.00,2013-05-23 16:25:00,
2013-05-23 09:26:00,60.8,53.5,29.90,South,189,5.0,13.0,77,0.00,,---,0.00,VWS V14.00,2013-05-23 16:26:00,
2013-05-23 09:27:00,60.8,53.5,29.90,South,170,7.0,13.0,77,0.00,,---,0.00,VWS V14.00,2013-05-23 16:27:00,
2013-05-23 09:28:00,60.8,53.5,29.90,SSE,165,1.0,13.0,77,0.00,,---,0.00,VWS V14.00,2013-05-23 16:28:00,
2013-05-23 09:29:00,60.8,53.9,29.90,ESE,120,3.0,13.0,78,0.00,,---,0.00,VWS V14.00,2013-05-23 16:29:00,
2013-05-23 09:30:00,60.9,54.0,29.90,SSE,147,4.0,13.0,78,0.00,,---,0.00,VWS V14.00,2013-05-23 16:30:00,
2013-05-23 09:32:00,61.1,53.8,29.90,SE,141,5.0,8.0,77,0.00,,---,0.00,VWS V14.00,2013-05-23 16:32:00,
2013-05-23 09:33:00,61.1,53.5,29.90,SE,146,8.0,10.0,76,0.00,,---,0.00,VWS V14.00,2013-05-23 16:33:00,
2013-05-23 09:34:00,61.1,53.5,29.90,SE,142,7.0,10.0,76,0.00,,---,0.00,VWS V14.00,2013-05-23 16:34:00,
2013-05-23 09:35:00,61.1,53.8,29.90,SSE,154,5.0,10.0,77,0.00,,---,0.00,VWS V14.00,2013-05-23 16:35:00,
2013-05-23 09:36:00,61.1,53.5,29.90,SSE,155,4.0,11.0,76,0.00,,---,0.00,VWS V14.00,2013-05-23 16:36:00,
2013-05-23 09:37:00,61.1,54.0,29.90,SSE,153,3.0,13.0,77,0.00,,,0.00,weatherlink.com 1.10,2013-05-23 16:37:00,
2013-05-23 09:40:00,61.2,53.9,29.90,SE,134,7.0,11.0,77,0.00,,---,0.00,VWS V14.00,2013-05-23 16:40:00,
2013-05-23 09:41:00,61.3,53.7,29.90,SE,127,5.0,13.0,76,0.00,,---,0.00,VWS V14.00,2013-05-23 16:41:00,
2013-05-23 09:44:00,61.4,53.8,29.90,SE,137,3.0,13.0,76,0.00,,---,0.00,VWS V14.00,2013-05-23 16:44:00,
2013-05-23 09:45:00,61.6,54.0,29.90,SSE,163,8.0,13.0,76,0.00,,---,0.00,VWS V14.00,2013-05-23 16:45:00,
2013-05-23 09:46:00,61.6,54.0,29.90,SSE,161,9.0,13.0,76,0.00,,---,0.00,VWS V14.00,2013-05-23 16:46:00,
2013-05-23 09:49:00,61.6,53.6,29.90,SSW,194,7.0,15.0,75,0.00,,---,0.00,VWS V14.00,2013-05-23 16:49:00,
2013-05-23 09:51:00,61.8,54.2,29.90,SSE,147,8.0,15.0,76,0.00,,---,0.00,VWS V14.00,2013-05-23 16:51:00,
2013-05-23 09:52:00,61.9,53.9,29.90,SE,132,5.0,15.0,75,0.00,,---,0.00,VWS V14.00,2013-05-23 16:52:00,
2013-05-23 09:53:00,62.0,54.4,29.90,SSE,152,11.0,15.0,76,0.00,,---,0.00,VWS V14.00,2013-05-23 16:53:00,
2013-05-23 09:57:00,62.3,53.9,29.90,SSE,150,5.0,15.0,74,0.00,,---,0.00,VWS V14.00,2013-05-23 16:57:00,
2013-05-23 09:58:00,62.1,53.7,29.90,South,175,10.0,15.0,74,0.00,,---,0.00,VWS V14.00,2013-05-23 16:58:00,
2013-05-23 09:59:00,62.1,53.7,29.90,SSE,148,10.0,15.0,74,0.00,,---,0.00,VWS V14.00,2013-05-23 16:59:00,
2013-05-23 10:00:00,62.2,53.5,29.90,SE,138,10.0,15.0,73,0.00,,---,0.00,VWS V14.00,2013-05-23 17:00:00,
2013-05-23 10:02:00,62.5,54.1,29.90,SE,142,4.0,10.0,74,0.00,,---,0.00,VWS V14.00,2013-05-23 17:02:00,
2013-05-23 10:03:00,62.6,54.2,29.90,SSE,165,6.0,10.0,74,0.00,,---,0.00,VWS V14.00,2013-05-23 17:03:00,
2013-05-23 10:04:00,62.9,54.1,29.90,SE,135,7.0,12.0,73,0.00,,---,0.00,VWS V14.00,2013-05-23 17:04:00,
2013-05-23 10:05:00,62.9,54.1,29.90,SSE,152,16.0,16.0,73,0.00,,---,0.00,VWS V14.00,2013-05-23 17:05:00,
2013-05-23 10:07:00,62.7,53.9,29.90,South,185,3.0,16.0,73,0.00,,---,0.00,VWS V14.00,2013-05-23 17:07:00,
2013-05-23 10:08:00,62.9,54.1,29.90,SE,144,12.0,16.0,73,0.00,,---,0.00,VWS V14.00,2013-05-23 17:08:00,
2013-05-23 10:09:00,62.9,54.1,29.90,SSE,161,13.0,16.0,73,0.00,,---,0.00,VWS V14.00,2013-05-23 17:09:00,
2013-05-23 10:11:00,62.9,53.8,29.90,SSE,167,10.0,19.0,72,0.00,,---,0.00,VWS V14.00,2013-05-23 17:11:00,
2013-05-23 10:12:00,62.9,53.8,29.90,SSE,161,8.0,19.0,72,0.00,,---,0.00,VWS V14.00,2013-05-23 17:12:00,
2013-05-23 10:13:00,62.8,53.7,29.90,SSW,198,6.0,19.0,72,0.00,,---,0.00,VWS V14.00,2013-05-23 17:13:00,
2013-05-23 10:14:00,62.7,53.9,29.90,SSE,149,6.0,19.0,73,0.00,,---,0.00,VWS V14.00,2013-05-23 17:14:00,
2013-05-23 10:16:00,62.7,53.9,29.90,SSE,166,9.0,19.0,73,0.00,,---,0.00,VWS V14.00,2013-05-23 17:16:00,
2013-05-23 10:18:00,62.8,54.0,29.90,SSE,157,8.0,19.0,73,0.00,,---,0.00,VWS V14.00,2013-05-23 17:18:00,
2013-05-23 10:21:00,63.0,53.8,29.90,South,173,11.0,19.0,72,0.00,,---,0.00,VWS V14.00,2013-05-23 17:21:00,
2013-05-23 10:22:00,63.3,54.1,29.90,SSE,156,10.0,19.0,72,0.00,,---,0.00,VWS V14.00,2013-05-23 17:22:00,
2013-05-23 10:23:00,63.4,53.8,29.90,SE,138,5.0,19.0,71,0.00,,---,0.00,VWS V14.00,2013-05-23 17:23:00,
2013-05-23 10:25:00,63.5,53.9,29.90,SSE,148,11.0,19.0,71,0.00,,---,0.00,VWS V14.00,2013-05-23 17:25:00,
2013-05-23 10:27:00,63.8,54.2,29.90,South,174,9.0,19.0,71,0.00,,---,0.00,VWS V14.00,2013-05-23 17:27:00,
2013-05-23 10:29:00,64.0,54.0,29.90,SSE,166,9.0,19.0,70,0.00,,---,0.00,VWS V14.00,2013-05-23 17:29:00,
2013-05-23 10:30:00,63.7,53.3,29.91,SSE,150,3.0,19.0,69,0.00,,---,0.00,VWS V14.00,2013-05-23 17:30:00,
2013-05-23 10:31:00,63.5,53.9,29.91,ESE,109,19.0,19.0,71,0.00,,---,0.00,VWS V14.00,2013-05-23 17:31:00,
2013-05-23 10:33:00,63.1,53.2,29.91,SSE,167,6.0,19.0,70,0.00,,---,0.00,VWS V14.00,2013-05-23 17:33:00,
2013-05-23 10:34:00,63.0,53.5,29.91,SSE,153,10.0,19.0,71,0.00,,---,0.00,VWS V14.00,2013-05-23 17:34:00,
2013-05-23 10:35:00,63.1,53.9,29.91,SE,141,13.0,19.0,72,0.00,,---,0.00,VWS V14.00,2013-05-23 17:35:00,
2013-05-23 10:37:00,63.3,54.1,29.91,SE,144,10.0,19.0,72,0.00,,---,0.00,VWS V14.00,2013-05-23 17:37:00,
2013-05-23 10:38:00,63.5,53.9,29.91,South,174,7.0,19.0,71,0.00,,---,0.00,VWS V14.00,2013-05-23 17:38:00,
2013-05-23 10:39:00,63.4,53.5,29.91,SSE,148,5.0,19.0,70,0.00,,---,0.00,VWS V14.00,2013-05-23 17:39:00,
2013-05-23 10:41:00,63.4,53.8,29.91,SSE,150,11.0,19.0,71,0.00,,---,0.00,VWS V14.00,2013-05-23 17:41:00,
2013-05-23 10:42:00,63.4,53.8,29.91,ESE,118,8.0,19.0,71,0.00,,---,0.00,VWS V14.00,2013-05-23 17:42:00,
2013-05-23 10:43:00,63.4,53.5,29.91,SE,146,13.0,19.0,70,0.00,,---,0.00,VWS V14.00,2013-05-23 17:43:00,
2013-05-23 10:44:00,63.2,53.3,29.91,SSE,153,14.0,19.0,70,0.00,,---,0.00,VWS V14.00,2013-05-23 17:44:00,
2013-05-23 10:46:00,63.0,53.5,29.91,South,169,4.0,19.0,71,0.00,,---,0.00,VWS V14.00,2013-05-23 17:46:00,
2013-05-23 10:47:00,63.2,54.0,29.91,South,183,8.0,19.0,72,0.00,,---,0.00,VWS V14.00,2013-05-23 17:47:00,
2013-05-23 10:48:00,63.2,54.0,29.91,South,173,7.0,19.0,72,0.00,,---,0.00,VWS V14.00,2013-05-23 17:48:00,
2013-05-23 10:49:00,63.2,53.7,29.91,SSE,155,6.0,19.0,71,0.00,,---,0.00,VWS V14.00,2013-05-23 17:49:00,
2013-05-23 10:50:00,63.3,53.8,29.91,South,177,4.0,19.0,71,0.00,,---,0.00,VWS V14.00,2013-05-23 17:50:00,
2013-05-23 10:51:00,63.4,53.8,29.91,South,189,2.0,19.0,71,0.00,,---,0.00,VWS V14.00,2013-05-23 17:51:00,
2013-05-23 10:53:00,64.0,54.0,29.91,SSW,211,5.0,19.0,70,0.00,,---,0.00,VWS V14.00,2013-05-23 17:53:00,
2013-05-23 10:54:00,64.1,54.1,29.91,SSW,208,6.0,19.0,70,0.00,,---,0.00,VWS V14.00,2013-05-23 17:54:00,
2013-05-23 10:56:00,64.1,53.7,29.91,SSW,199,7.0,19.0,69,0.00,,---,0.00,VWS V14.00,2013-05-23 17:56:00,
2013-05-23 10:57:00,64.0,53.6,29.91,SSE,167,6.0,19.0,69,0.00,,---,0.00,VWS V14.00,2013-05-23 17:57:00,
2013-05-23 10:58:00,63.8,53.5,29.91,SSE,151,8.0,19.0,69,0.00,,---,0.00,VWS V14.00,2013-05-23 17:58:00,
2013-05-23 11:00:00,63.8,53.5,29.91,ESE,109,5.0,19.0,69,0.00,,---,0.00,VWS V14.00,2013-05-23 18:00:00,
2013-05-23 11:02:00,63.8,53.0,29.91,SE,140,10.0,13.0,68,0.00,,---,0.00,VWS V14.00,2013-05-23 18:02:00,
2013-05-23 11:04:00,63.4,53.1,29.91,SSE,150,5.0,13.0,69,0.00,,---,0.00,VWS V14.00,2013-05-23 18:04:00,
2013-05-23 11:05:00,63.3,53.0,29.91,SE,134,6.0,15.0,69,0.00,,---,0.00,VWS V14.00,2013-05-23 18:05:00,
2013-05-23 11:06:00,63.3,53.4,29.91,SSE,155,7.0,15.0,70,0.00,,---,0.00,VWS V14.00,2013-05-23 18:06:00,
2013-05-23 11:07:00,63.6,53.7,29.91,SSE,157,9.0,15.0,70,0.00,,---,0.00,VWS V14.00,2013-05-23 18:07:00,
2013-05-23 11:09:00,64.0,53.2,29.91,SSE,148,4.0,16.0,68,0.00,,---,0.00,VWS V14.00,2013-05-23 18:09:00,
2013-05-23 11:11:00,64.0,53.2,29.91,SE,146,7.0,16.0,68,0.00,,---,0.00,VWS V14.00,2013-05-23 18:11:00,
2013-05-23 11:12:00,64.1,53.3,29.91,East,93,3.0,16.0,68,0.00,,---,0.00,VWS V14.00,2013-05-23 18:12:00,
2013-05-23 11:15:00,64.3,53.5,29.91,SE,140,10.0,18.0,68,0.00,,---,0.00,VWS V14.00,2013-05-23 18:15:00,
2013-05-23 11:16:00,64.0,53.6,29.91,South,188,11.0,18.0,69,0.00,,---,0.00,VWS V14.00,2013-05-23 18:16:00,
2013-05-23 11:17:00,64.0,53.6,29.91,SE,144,12.0,18.0,69,0.00,,---,0.00,VWS V14.00,2013-05-23 18:17:00,
2013-05-23 11:18:00,64.0,53.6,29.91,South,174,4.0,18.0,69,0.00,,---,0.00,VWS V14.00,2013-05-23 18:18:00,
2013-05-23 11:19:00,64.0,53.6,29.91,SE,130,4.0,18.0,69,0.00,,---,0.00,VWS V14.00,2013-05-23 18:19:00,
2013-05-23 11:20:00,64.1,53.7,29.91,South,182,4.0,18.0,69,0.00,,---,0.00,VWS V14.00,2013-05-23 18:20:00,
2013-05-23 11:22:00,64.1,53.3,29.91,SSE,157,11.0,18.0,68,0.00,,---,0.00,VWS V14.00,2013-05-23 18:22:00,
2013-05-23 11:24:00,63.9,53.5,29.91,SSE,166,14.0,18.0,69,0.00,,---,0.00,VWS V14.00,2013-05-23 18:24:00,
2013-05-23 11:26:00,63.4,53.5,29.91,SE,142,7.0,18.0,70,0.00,,---,0.00,VWS V14.00,2013-05-23 18:26:00,
2013-05-23 11:28:00,63.3,53.0,29.91,South,184,10.0,18.0,69,0.00,,---,0.00,VWS V14.00,2013-05-23 18:28:00,
2013-05-23 11:29:00,63.2,53.3,29.91,SSE,155,5.0,18.0,70,0.00,,---,0.00,VWS V14.00,2013-05-23 18:29:00,
2013-05-23 11:30:00,63.2,53.3,29.91,SSE,159,7.0,18.0,70,0.00,,---,0.00,VWS V14.00,2013-05-23 18:30:00,
2013-05-23 11:31:00,63.2,53.3,29.91,South,178,5.0,11.0,70,0.00,,---,0.00,VWS V14.00,2013-05-23 18:31:00,
2013-05-23 11:32:00,63.4,53.5,29.91,South,185,2.0,11.0,70,0.00,,---,0.00,VWS V14.00,2013-05-23 18:32:00,
2013-05-23 11:33:00,63.4,53.5,29.91,ESE,111,4.0,11.0,70,0.00,,---,0.00,VWS V14.00,2013-05-23 18:33:00,
2013-05-23 11:35:00,63.6,53.7,29.91,South,183,3.0,14.0,70,0.00,,---,0.00,VWS V14.00,2013-05-23 18:35:00,
2013-05-23 11:37:00,63.8,53.5,29.91,SE,129,4.0,14.0,69,0.00,,---,0.00,VWS V14.00,2013-05-23 18:37:00,
2013-05-23 11:38:00,64.0,53.6,29.91,SE,137,6.0,14.0,69,0.00,,---,0.00,VWS V14.00,2013-05-23 18:38:00,
2013-05-23 11:39:00,64.2,53.4,29.91,ENE,59,10.0,14.0,68,0.00,,---,0.00,VWS V14.00,2013-05-23 18:39:00,
2013-05-23 11:40:00,64.2,53.4,29.91,SSW,202,6.0,14.0,68,0.00,,---,0.00,VWS V14.00,2013-05-23 18:40:00,
2013-05-23 11:41:00,64.1,53.3,29.91,SSE,148,7.0,15.0,68,0.00,,---,0.00,VWS V14.00,2013-05-23 18:41:00,
2013-05-23 11:42:00,64.0,53.2,29.91,SE,146,8.0,15.0,68,0.00,,---,0.00,VWS V14.00,2013-05-23 18:42:00,
2013-05-23 11:43:00,63.7,53.3,29.91,SSW,211,10.0,15.0,69,0.00,,---,0.00,VWS V14.00,2013-05-23 18:43:00,
2013-05-23 11:44:00,63.5,53.2,29.91,South,182,5.0,15.0,69,0.00,,---,0.00,VWS V14.00,2013-05-23 18:44:00,
2013-05-23 11:47:00,63.4,53.5,29.91,SW,236,5.0,15.0,70,0.00,,---,0.00,VWS V14.00,2013-05-23 18:47:00,
2013-05-23 11:50:00,63.8,53.5,29.91,South,187,10.0,15.0,69,0.00,,---,0.00,VWS V14.00,2013-05-23 18:50:00,
2013-05-23 11:51:00,63.7,53.3,29.91,SSE,155,6.0,15.0,69,0.00,,---,0.00,VWS V14.00,2013-05-23 18:51:00,
2013-05-23 11:52:00,63.6,53.3,29.91,SE,139,3.0,15.0,69,0.00,,---,0.00,VWS V14.00,2013-05-23 18:52:00,
2013-05-23 11:55:00,63.9,53.5,29.91,WNW,283,2.0,15.0,69,0.00,,---,0.00,VWS V14.00,2013-05-23 18:55:00,
2013-05-23 11:56:00,64.0,53.6,29.91,SSE,156,8.0,15.0,69,0.00,,---,0.00,VWS V14.00,2013-05-23 18:56:00,
2013-05-23 11:57:00,64.0,53.6,29.91,SSW,204,15.0,15.0,69,0.00,,---,0.00,VWS V14.00,2013-05-23 18:57:00,
2013-05-23 12:00:00,64.5,54.1,29.90,South,171,12.0,15.0,69,0.00,,---,0.00,VWS V14.00,2013-05-23 19:00:00,
2013-05-23 12:01:00,64.5,54.1,29.90,South,171,9.0,9.0,69,0.00,,---,0.00,VWS V14.00,2013-05-23 19:01:00,
2013-05-23 12:03:00,64.7,53.9,29.90,SE,131,4.0,12.0,68,0.00,,---,0.00,VWS V14.00,2013-05-23 19:03:00,
2013-05-23 12:04:00,64.7,53.9,29.90,SSW,208,8.0,14.0,68,0.00,,---,0.00,VWS V14.00,2013-05-23 19:04:00,
2013-05-23 12:06:00,64.1,53.3,29.90,SSE,155,11.0,14.0,68,0.00,,---,0.00,VWS V14.00,2013-05-23 19:06:00,
2013-05-23 12:07:00,64.0,53.6,29.90,SE,142,13.0,14.0,69,0.00,,---,0.00,VWS V14.00,2013-05-23 19:07:00,
2013-05-23 12:10:00,63.4,53.1,29.90,SSE,150,9.0,14.0,69,0.00,,---,0.00,VWS V14.00,2013-05-23 19:10:00,
2013-05-23 12:12:00,63.1,53.2,29.90,SSE,149,5.0,14.0,70,0.00,,---,0.00,VWS V14.00,2013-05-23 19:12:00,
2013-05-23 12:13:00,63.1,53.2,29.90,SSW,197,9.0,14.0,70,0.00,,---,0.00,VWS V14.00,2013-05-23 19:13:00,
2013-05-23 12:15:00,63.2,52.9,29.91,SSE,149,10.0,15.0,69,0.00,,---,0.00,VWS V14.00,2013-05-23 19:15:00,
2013-05-23 12:18:00,63.4,53.1,29.91,South,171,4.0,17.0,69,0.00,,---,0.00,VWS V14.00,2013-05-23 19:18:00,
2013-05-23 12:19:00,63.5,53.5,29.91,SSE,161,10.0,17.0,70,0.00,,---,0.00,VWS V14.00,2013-05-23 19:19:00,
2013-05-23 12:20:00,63.5,53.2,29.91,SSE,159,7.0,17.0,69,0.00,,---,0.00,VWS V14.00,2013-05-23 19:20:00,
2013-05-23 12:25:00,64.4,53.2,29.91,SSE,168,6.0,17.0,67,0.00,,---,0.00,VWS V14.00,2013-05-23 19:25:00,
2013-05-23 12:26:00,64.4,53.2,29.91,SE,135,8.0,17.0,67,0.00,,---,0.00,VWS V14.00,2013-05-23 19:26:00,
2013-05-23 12:30:00,64.0,53.2,29.91,SSE,162,2.0,17.0,68,0.00,,---,0.00,VWS V14.00,2013-05-23 19:30:00,
2013-05-23 12:31:00,64.2,53.4,29.91,SSE,154,5.0,12.0,68,0.00,,---,0.00,VWS V14.00,2013-05-23 19:31:00,
2013-05-23 12:33:00,64.4,53.6,29.91,SSE,153,5.0,12.0,68,0.00,,---,0.00,VWS V14.00,2013-05-23 19:33:00,
2013-05-23 12:36:00,63.7,53.3,29.91,SSW,211,6.0,12.0,69,0.00,,---,0.00,VWS V14.00,2013-05-23 19:36:00,
2013-05-23 12:38:00,63.4,53.1,29.91,South,182,12.0,12.0,69,0.00,,---,0.00,VWS V14.00,2013-05-23 19:38:00,
2013-05-23 12:39:00,63.2,53.3,29.91,SE,146,10.0,14.0,70,0.00,,---,0.00,VWS V14.00,2013-05-23 19:39:00,
2013-05-23 12:41:00,63.4,53.5,29.91,SSE,163,5.0,14.0,70,0.00,,---,0.00,VWS V14.00,2013-05-23 19:41:00,
2013-05-23 12:42:00,63.4,53.5,29.91,South,175,5.0,14.0,70,0.00,,---,0.00,VWS V14.00,2013-05-23 19:42:00,
2013-05-23 12:43:00,63.6,53.7,29.91,SSE,153,7.0,14.0,70,0.00,,---,0.00,VWS V14.00,2013-05-23 19:43:00,
2013-05-23 12:47:00,63.8,53.0,29.91,SE,143,1.0,16.0,68,0.00,,---,0.00,VWS V14.00,2013-05-23 19:47:00,
2013-05-23 12:48:00,64.0,53.2,29.91,SSW,202,5.0,16.0,68,0.00,,---,0.00,VWS V14.00,2013-05-23 19:48:00,
2013-05-23 12:52:00,64.5,53.3,29.91,SSE,161,6.0,16.0,67,0.00,,---,0.00,VWS V14.00,2013-05-23 19:52:00,
2013-05-23 12:53:00,64.5,53.7,29.91,South,182,8.0,16.0,68,0.00,,---,0.00,VWS V14.00,2013-05-23 19:53:00,
2013-05-23 12:54:00,64.3,53.5,29.91,SSW,200,7.0,16.0,68,0.00,,---,0.00,VWS V14.00,2013-05-23 19:54:00,
2013-05-23 12:56:00,64.0,53.2,29.91,SSE,165,7.0,16.0,68,0.00,,---,0.00,VWS V14.00,2013-05-23 19:56:00,
2013-05-23 12:57:00,64.1,53.3,29.91,SSW,198,7.0,16.0,68,0.00,,---,0.00,VWS V14.00,2013-05-23 19:57:00,
2013-05-23 12:58:00,64.3,53.5,29.91,SE,128,6.0,16.0,68,0.00,,---,0.00,VWS V14.00,2013-05-23 19:58:00,
2013-05-23 13:00:00,64.7,53.5,29.91,SSE,151,5.0,16.0,67,0.00,,---,0.00,VWS V14.00,2013-05-23 20:00:00,
2013-05-23 13:02:00,65.1,53.1,29.91,South,184,4.0,9.0,65,0.00,,---,0.00,VWS V14.00,2013-05-23 20:02:00,
2013-05-23 13:03:00,65.0,53.4,29.91,SSW,208,3.0,9.0,66,0.00,,---,0.00,VWS V14.00,2013-05-23 20:03:00,
2013-05-23 13:05:00,64.9,53.0,29.91,SSE,147,7.0,15.0,66,0.00,,,0.00,weatherlink.com 1.10,2013-05-23 20:05:00,
2013-05-23 13:08:00,64.3,52.7,29.91,SSE,150,7.0,15.0,66,0.00,,---,0.00,VWS V14.00,2013-05-23 20:08:00,
2013-05-23 13:09:00,64.2,53.0,29.91,SW,216,5.0,15.0,67,0.00,,---,0.00,VWS V14.00,2013-05-23 20:09:00,
2013-05-23 13:10:00,64.1,52.9,29.91,SSW,202,3.0,15.0,67,0.00,,---,0.00,VWS V14.00,2013-05-23 20:10:00,
2013-05-23 13:11:00,64.1,52.9,29.91,SE,142,8.0,15.0,67,0.00,,---,0.00,VWS V14.00,2013-05-23 20:11:00,
2013-05-23 13:12:00,64.1,52.9,29.91,South,182,3.0,15.0,67,0.00,,---,0.00,VWS V14.00,2013-05-23 20:12:00,
2013-05-23 13:13:00,64.2,53.0,29.91,SSW,198,5.0,15.0,67,0.00,,---,0.00,VWS V14.00,2013-05-23 20:13:00,
2013-05-23 13:15:00,64.0,52.8,29.91,SSE,162,6.0,15.0,67,0.00,,---,0.00,VWS V14.00,2013-05-23 20:15:00,
2013-05-23 13:17:00,64.0,53.2,29.91,South,183,5.0,15.0,68,0.00,,---,0.00,VWS V14.00,2013-05-23 20:17:00,
2013-05-23 13:18:00,64.0,53.2,29.91,South,178,4.0,15.0,68,0.00,,---,0.00,VWS V14.00,2013-05-23 20:18:00,
2013-05-23 13:20:00,64.2,53.4,29.91,SSE,163,4.0,15.0,68,0.00,,---,0.00,VWS V14.00,2013-05-23 20:20:00,
2013-05-23 13:21:00,64.4,53.2,29.91,SSW,205,7.0,15.0,67,0.00,,---,0.00,VWS V14.00,2013-05-23 20:21:00,
2013-05-23 13:24:00,64.4,53.2,29.91,SSE,165,5.0,15.0,67,0.00,,---,0.00,VWS V14.00,2013-05-23 20:24:00,
2013-05-23 13:25:00,64.7,53.5,29.91,ENE,59,2.0,15.0,67,0.00,,---,0.00,VWS V14.00,2013-05-23 20:25:00,
2013-05-23 13:26:00,64.9,53.7,29.91,SSW,213,3.0,15.0,67,0.00,,---,0.00,VWS V14.00,2013-05-23 20:26:00,
2013-05-23 13:29:00,64.5,53.3,29.91,South,169,2.0,15.0,67,0.00,,---,0.00,VWS V14.00,2013-05-23 20:29:00,
2013-05-23 13:30:00,64.5,53.7,29.91,South,178,7.0,15.0,68,0.00,,---,0.00,VWS V14.00,2013-05-23 20:30:00,
2013-05-23 13:33:00,64.2,53.4,29.91,West,265,3.0,9.0,68,0.00,,---,0.00,VWS V14.00,2013-05-23 20:33:00,
2013-05-23 13:34:00,64.0,53.2,29.91,SSE,162,7.0,14.0,68,0.00,,---,0.00,VWS V14.00,2013-05-23 20:34:00,
2013-05-23 13:35:00,63.8,52.7,29.91,SSE,165,4.0,14.0,67,0.00,,---,0.00,VWS V14.00,2013-05-23 20:35:00,
2013-05-23 13:37:00,63.5,53.2,29.91,SSE,155,6.0,14.0,69,0.00,,---,0.00,VWS V14.00,2013-05-23 20:37:00,
2013-05-23 13:38:00,63.5,53.2,29.91,SSE,153,7.0,14.0,69,0.00,,---,0.00,VWS V14.00,2013-05-23 20:38:00,
2013-05-23 13:39:00,63.2,53.3,29.91,South,186,12.0,14.0,70,0.00,,---,0.00,VWS V14.00,2013-05-23 20:39:00,
2013-05-23 13:40:00,63.1,53.2,29.91,South,181,11.0,14.0,70,0.00,,---,0.00,VWS V14.00,2013-05-23 20:40:00,
2013-05-23 13:41:00,63.0,53.1,29.91,SSW,204,2.0,14.0,70,0.00,,---,0.00,VWS V14.00,2013-05-23 20:41:00,
2013-05-23 13:43:00,63.1,53.6,29.91,SSE,148,6.0,14.0,71,0.00,,---,0.00,VWS V14.00,2013-05-23 20:43:00,
2013-05-23 13:45:00,63.5,53.5,29.91,South,172,4.0,14.0,70,0.00,,---,0.00,VWS V14.00,2013-05-23 20:45:00,
2013-05-23 13:46:00,63.6,53.7,29.91,WSW,238,2.0,14.0,70,0.00,,---,0.00,VWS V14.00,2013-05-23 20:46:00,
2013-05-23 13:49:00,64.3,53.9,29.91,South,180,2.0,14.0,69,0.00,,---,0.00,VWS V14.00,2013-05-23 20:49:00,
2013-05-23 13:50:00,64.5,53.7,29.91,SE,126,8.0,14.0,68,0.00,,---,0.00,VWS V14.00,2013-05-23 20:50:00,
2013-05-23 13:51:00,64.5,53.7,29.91,SSE,159,6.0,14.0,68,0.00,,---,0.00,VWS V14.00,2013-05-23 20:51:00,
2013-05-23 13:52:00,64.5,53.7,29.91,SSE,153,9.0,14.0,68,0.00,,---,0.00,VWS V14.00,2013-05-23 20:52:00,
2013-05-23 13:53:00,64.5,54.1,29.91,SE,136,8.0,14.0,69,0.00,,---,0.00,VWS V14.00,2013-05-23 20:53:00,
2013-05-23 13:56:00,64.6,54.2,29.91,South,170,3.0,14.0,69,0.00,,---,0.00,VWS V14.00,2013-05-23 20:56:00,
2013-05-23 13:57:00,64.5,54.5,29.91,South,190,10.0,14.0,70,0.00,,---,0.00,VWS V14.00,2013-05-23 20:57:00,
2013-05-23 13:58:00,64.0,54.0,29.91,SSE,159,10.0,15.0,70,0.00,,---,0.00,VWS V14.00,2013-05-23 20:58:00,
2013-05-23 14:00:00,63.8,54.2,29.92,South,186,5.0,15.0,71,0.00,,---,0.00,VWS V14.00,2013-05-23 21:00:00,
2013-05-23 14:01:00,63.7,54.1,29.92,South,176,9.0,10.0,71,0.00,,---,0.00,VWS V14.00,2013-05-23 21:01:00,
2013-05-23 14:02:00,63.6,54.0,29.92,South,180,4.0,12.0,71,0.00,,---,0.00,VWS V14.00,2013-05-23 21:02:00,
2013-05-23 14:04:00,63.4,53.8,29.92,WNW,286,4.0,12.0,71,0.00,,---,0.00,VWS V14.00,2013-05-23 21:04:00,
2013-05-23 14:06:00,63.4,54.2,29.92,South,189,4.0,12.0,72,0.00,,---,0.00,VWS V14.00,2013-05-23 21:06:00,
2013-05-23 14:07:00,63.6,54.4,29.92,South,186,2.0,12.0,72,0.00,,---,0.00,VWS V14.00,2013-05-23 21:07:00,
2013-05-23 14:08:00,63.7,54.9,29.92,West,266,5.0,12.0,73,0.00,,---,0.00,VWS V14.00,2013-05-23 21:08:00,
2013-05-23 14:10:00,64.1,54.9,29.92,South,187,7.0,13.0,72,0.00,,---,0.00,VWS V14.00,2013-05-23 21:10:00,
2013-05-23 14:11:00,64.1,54.5,29.92,South,188,5.0,13.0,71,0.00,,---,0.00,VWS V14.00,2013-05-23 21:11:00,
2013-05-23 14:13:00,64.0,54.0,29.92,SSW,192,7.0,13.0,70,0.00,,---,0.00,VWS V14.00,2013-05-23 21:13:00,
2013-05-23 14:15:00,64.1,54.5,29.91,SE,141,5.0,13.0,71,0.00,,---,0.00,VWS V14.00,2013-05-23 21:15:00,
2013-05-23 14:16:00,64.3,54.7,29.91,SW,234,4.0,13.0,71,0.00,,---,0.00,VWS V14.00,2013-05-23 21:16:00,
2013-05-23 14:17:00,64.5,54.9,29.91,South,174,2.0,13.0,71,0.00,,---,0.00,VWS V14.00,2013-05-23 21:17:00,
2013-05-23 14:20:00,65.9,55.5,29.91,SE,144,9.0,13.0,69,0.00,,---,0.00,VWS V14.00,2013-05-23 21:20:00,
2013-05-23 14:21:00,65.9,55.0,29.91,South,177,9.0,13.0,68,0.00,,---,0.00,VWS V14.00,2013-05-23 21:21:00,
2013-05-23 14:22:00,65.8,55.0,29.91,SE,146,9.0,13.0,68,0.00,,---,0.00,VWS V14.00,2013-05-23 21:22:00,
2013-05-23 14:23:00,65.4,54.6,29.91,SSE,151,4.0,13.0,68,0.00,,---,0.00,VWS V14.00,2013-05-23 21:23:00,
2013-05-23 14:27:00,65.2,55.2,29.91,SSW,199,6.0,13.0,70,0.00,,---,0.00,VWS V14.00,2013-05-23 21:27:00,
2013-05-23 14:28:00,65.1,55.1,29.91,West,280,4.0,13.0,70,0.00,,---,0.00,VWS V14.00,2013-05-23 21:28:00,
2013-05-23 14:29:00,65.0,55.0,29.91,SE,138,8.0,13.0,70,0.00,,---,0.00,VWS V14.00,2013-05-23 21:29:00,
2013-05-23 14:30:00,65.0,55.0,29.91,East,94,3.0,13.0,70,0.00,,---,0.00,VWS V14.00,2013-05-23 21:30:00,
2013-05-23 14:33:00,65.3,55.3,29.91,SSW,194,2.0,9.0,70,0.00,,---,0.00,VWS V14.00,2013-05-23 21:33:00,
2013-05-23 14:34:00,65.3,54.9,29.91,SSW,210,2.0,9.0,69,0.00,,---,0.00,VWS V14.00,2013-05-23 21:34:00,
2013-05-23 14:35:00,65.4,55.4,29.91,SE,139,10.0,11.0,70,0.00,,---,0.00,VWS V14.00,2013-05-23 21:35:00,
2013-05-23 14:37:00,64.9,54.9,29.91,South,184,5.0,12.0,70,0.00,,---,0.00,VWS V14.00,2013-05-23 21:37:00,
2013-05-23 14:38:00,65.1,55.9,29.91,South,176,7.0,12.0,72,0.00,,---,0.00,VWS V14.00,2013-05-23 21:38:00,
2013-05-23 14:40:00,64.9,54.9,29.91,SSE,166,2.0,12.0,70,0.00,,---,0.00,VWS V14.00,2013-05-23 21:40:00,
2013-05-23 14:41:00,64.9,55.3,29.91,SSE,167,8.0,12.0,71,0.00,,---,0.00,VWS V14.00,2013-05-23 21:41:00,
2013-05-23 14:43:00,65.1,55.1,29.91,SSE,157,3.0,12.0,70,0.00,,---,0.00,VWS V14.00,2013-05-23 21:43:00,
2013-05-23 14:44:00,65.1,55.1,29.91,SSW,213,0.0,12.0,70,0.00,,---,0.00,VWS V14.00,2013-05-23 21:44:00,
2013-05-23 14:46:00,65.5,55.5,29.91,South,180,7.0,12.0,70,0.00,,---,0.00,VWS V14.00,2013-05-23 21:46:00,
2013-05-23 14:48:00,65.4,55.4,29.91,WSW,244,6.0,12.0,70,0.00,,---,0.00,VWS V14.00,2013-05-23 21:48:00,
2013-05-23 14:50:00,65.2,55.2,29.91,SSW,213,1.0,12.0,70,0.00,,---,0.00,VWS V14.00,2013-05-23 21:50:00,
2013-05-23 14:53:00,65.4,55.4,29.91,SSW,196,3.0,12.0,70,0.00,,---,0.00,VWS V14.00,2013-05-23 21:53:00,
2013-05-23 14:54:00,65.6,55.6,29.91,WSW,250,2.0,12.0,70,0.00,,---,0.00,VWS V14.00,2013-05-23 21:54:00,
2013-05-23 14:55:00,65.8,55.8,29.91,SSE,166,1.0,12.0,70,0.00,,---,0.00,VWS V14.00,2013-05-23 21:55:00,
2013-05-23 14:56:00,65.9,55.5,29.91,SSE,157,5.0,12.0,69,0.00,,---,0.00,VWS V14.00,2013-05-23 21:56:00,
2013-05-23 14:59:00,66.3,55.8,29.91,SE,142,7.0,12.0,69,0.00,,---,0.00,VWS V14.00,2013-05-23 21:59:00,
2013-05-23 15:00:00,66.2,55.7,29.90,South,179,14.0,14.0,69,0.00,,---,0.00,VWS V14.00,2013-05-23 22:00:00,
2013-05-23 15:01:00,66.2,55.7,29.90,SSE,167,9.0,14.0,69,0.00,,---,0.00,VWS V14.00,2013-05-23 22:01:00,
2013-05-23 15:06:00,65.9,55.5,29.90,SW,217,0.0,11.0,69,0.00,,---,0.00,VWS V14.00,2013-05-23 22:06:00,
2013-05-23 15:11:00,65.9,55.8,29.90,SSW,209,1.0,11.0,70,0.00,,---,0.00,VWS V14.00,2013-05-23 22:11:00,
2013-05-23 15:12:00,65.9,56.2,29.90,SSE,147,7.0,11.0,71,0.00,,---,0.00,VWS V14.00,2013-05-23 22:12:00,
2013-05-23 15:16:00,66.5,56.0,29.90,West,279,6.0,11.0,69,0.00,,---,0.00,VWS V14.00,2013-05-23 22:16:00,
2013-05-23 15:17:00,66.4,55.9,29.90,South,186,7.0,11.0,69,0.00,,---,0.00,VWS V14.00,2013-05-23 22:17:00,
2013-05-23 15:18:00,66.1,55.7,29.90,NW,304,4.0,11.0,69,0.00,,---,0.00,VWS V14.00,2013-05-23 22:18:00,
2013-05-23 15:21:00,65.6,55.6,29.90,South,171,5.0,11.0,70,0.00,,---,0.00,VWS V14.00,2013-05-23 22:21:00,
2013-05-23 15:22:00,65.4,55.4,29.90,South,187,0.0,11.0,70,0.00,,---,0.00,VWS V14.00,2013-05-23 22:22:00,
2013-05-23 15:24:00,65.2,55.2,29.90,SSE,160,3.0,11.0,70,0.00,,---,0.00,VWS V14.00,2013-05-23 22:24:00,
2013-05-23 15:26:00,65.3,55.7,29.90,SSW,208,3.0,11.0,71,0.00,,---,0.00,VWS V14.00,2013-05-23 22:26:00,
2013-05-23 15:27:00,65.6,56.0,29.90,West,267,3.0,11.0,71,0.00,,---,0.00,VWS V14.00,2013-05-23 22:27:00,
2013-05-23 15:28:00,65.6,55.6,29.90,West,263,6.0,11.0,70,0.00,,---,0.00,VWS V14.00,2013-05-23 22:28:00,
2013-05-23 15:29:00,65.2,55.2,29.90,West,271,3.0,11.0,70,0.00,,---,0.00,VWS V14.00,2013-05-23 22:29:00,
2013-05-23 15:30:00,64.9,55.3,29.90,SW,232,0.0,11.0,71,0.00,,---,0.00,VWS V14.00,2013-05-23 22:30:00,
2013-05-23 15:31:00,64.9,54.9,29.90,SW,223,3.0,4.0,70,0.00,,---,0.00,VWS V14.00,2013-05-23 22:31:00,
2013-05-23 15:32:00,64.9,55.3,29.90,WSW,245,6.0,8.0,71,0.00,,---,0.00,VWS V14.00,2013-05-23 22:32:00,
2013-05-23 15:33:00,64.7,54.7,29.90,SW,227,2.0,8.0,70,0.00,,---,0.00,VWS V14.00,2013-05-23 22:33:00,
2013-05-23 15:35:00,64.7,55.5,29.90,South,173,3.0,8.0,72,0.00,,---,0.00,VWS V14.00,2013-05-23 22:35:00,
2013-05-23 15:37:00,64.7,55.1,29.90,SSW,207,1.0,8.0,71,0.00,,---,0.00,VWS V14.00,2013-05-23 22:37:00,
2013-05-23 15:38:00,64.7,55.1,29.90,SSW,208,6.0,8.0,71,0.00,,---,0.00,VWS V14.00,2013-05-23 22:38:00,
2013-05-23 15:43:00,64.4,54.8,29.90,West,265,3.0,8.0,71,0.00,,---,0.00,VWS V14.00,2013-05-23 22:43:00,
2013-05-23 15:44:00,64.4,54.8,29.90,WSW,249,5.0,8.0,71,0.00,,---,0.00,VWS V14.00,2013-05-23 22:44:00,
2013-05-23 15:46:00,64.5,55.3,29.90,WSW,249,5.0,8.0,72,0.00,,---,0.00,VWS V14.00,2013-05-23 22:46:00,
2013-05-23 15:49:00,64.7,55.1,29.90,South,188,3.0,9.0,71,0.00,,---,0.00,VWS V14.00,2013-05-23 22:49:00,
2013-05-23 15:50:00,64.8,55.2,29.90,SSW,207,3.0,9.0,71,0.00,,---,0.00,VWS V14.00,2013-05-23 22:50:00,
2013-05-23 15:51:00,64.9,55.3,29.90,SSW,192,0.0,9.0,71,0.00,,---,0.00,VWS V14.00,2013-05-23 22:51:00,
2013-05-23 15:55:00,64.5,54.9,29.90,WSW,242,1.0,10.0,71,0.00,,---,0.00,VWS V14.00,2013-05-23 22:55:00,
2013-05-23 15:56:00,64.4,54.8,29.90,WSW,250,2.0,10.0,71,0.00,,---,0.00,VWS V14.00,2013-05-23 22:56:00,
2013-05-23 15:57:00,64.4,55.2,29.90,SSW,203,1.0,10.0,72,0.00,,---,0.00,VWS V14.00,2013-05-23 22:57:00,
2013-05-23 16:00:00,65.0,55.4,29.89,SSE,158,3.0,10.0,71,0.00,,---,0.00,VWS V14.00,2013-05-23 23:00:00,
2013-05-23 16:02:00,65.1,55.5,29.89,SSE,163,4.0,6.0,71,0.00,,---,0.00,VWS V14.00,2013-05-23 23:02:00,
2013-05-23 16:03:00,65.3,55.3,29.89,South,178,7.0,8.0,70,0.00,,---,0.00,VWS V14.00,2013-05-23 23:03:00,
2013-05-23 16:06:00,65.3,54.9,29.89,SE,128,3.0,9.0,69,0.00,,---,0.00,VWS V14.00,2013-05-23 23:06:00,
2013-05-23 16:07:00,65.5,55.1,29.89,SSE,156,4.0,9.0,69,0.00,,---,0.00,VWS V14.00,2013-05-23 23:07:00,
2013-05-23 16:08:00,65.7,54.9,29.89,SE,141,4.0,9.0,68,0.00,,---,0.00,VWS V14.00,2013-05-23 23:08:00,
2013-05-23 16:09:00,65.8,55.4,29.89,SSW,194,4.0,9.0,69,0.00,,---,0.00,VWS V14.00,2013-05-23 23:09:00,
2013-05-23 16:11:00,66.0,55.5,29.89,SSW,213,6.0,9.0,69,0.00,,---,0.00,VWS V14.00,2013-05-23 23:11:00,
2013-05-23 16:12:00,65.9,55.5,29.89,South,173,0.0,9.0,69,0.00,,---,0.00,VWS V14.00,2013-05-23 23:12:00,
2013-05-23 16:13:00,65.9,55.5,29.89,SSE,159,3.0,9.0,69,0.00,,---,0.00,VWS V14.00,2013-05-23 23:13:00,
2013-05-23 16:14:00,65.9,55.0,29.89,SE,144,5.0,9.0,68,0.00,,---,0.00,VWS V14.00,2013-05-23 23:14:00,
2013-05-23 16:17:00,66.0,55.5,29.89,SSE,167,2.0,9.0,69,0.00,,---,0.00,VWS V14.00,2013-05-23 23:17:00,
2013-05-23 16:18:00,66.3,55.8,29.89,SSE,159,3.0,9.0,69,0.00,,---,0.00,VWS V14.00,2013-05-23 23:18:00,
2013-05-23 16:20:00,66.4,55.1,29.89,SE,146,5.0,12.0,67,0.00,,---,0.00,VWS V14.00,2013-05-23 23:20:00,
2013-05-23 16:22:00,66.1,55.2,29.89,SSW,199,2.0,12.0,68,0.00,,---,0.00,VWS V14.00,2013-05-23 23:22:00,
2013-05-23 16:23:00,65.9,55.0,29.89,SSW,201,2.0,12.0,68,0.00,,---,0.00,VWS V14.00,2013-05-23 23:23:00,
2013-05-23 16:26:00,66.0,55.5,29.89,South,177,2.0,12.0,69,0.00,,---,0.00,VWS V14.00,2013-05-23 23:26:00,
2013-05-23 16:27:00,66.4,55.9,29.89,SW,232,3.0,12.0,69,0.00,,---,0.00,VWS V14.00,2013-05-23 23:27:00,
2013-05-23 16:28:00,66.5,56.0,29.89,SW,232,4.0,12.0,69,0.00,,---,0.00,VWS V14.00,2013-05-23 23:28:00,
2013-05-23 16:30:00,66.3,55.4,29.89,SE,126,2.0,12.0,68,0.00,,---,0.00,VWS V14.00,2013-05-23 23:30:00,
2013-05-23 16:31:00,66.3,55.4,29.89,SE,126,2.0,12.0,68,0.00,,---,0.00,VWS V14.00,2013-05-23 23:31:00,
2013-05-23 16:33:00,66.0,54.7,29.89,South,190,2.0,9.0,67,0.00,,---,0.00,VWS V14.00,2013-05-23 23:33:00,
2013-05-23 16:36:00,65.6,55.2,29.89,SE,144,5.0,9.0,69,0.00,,---,0.00,VWS V14.00,2013-05-23 23:36:00,
2013-05-23 16:37:00,65.7,54.9,29.89,SE,136,3.0,9.0,68,0.00,,---,0.00,VWS V14.00,2013-05-23 23:37:00,
2013-05-23 16:38:00,65.7,55.3,29.89,SSW,196,1.0,9.0,69,0.00,,---,0.00,VWS V14.00,2013-05-23 23:38:00,
2013-05-23 16:39:00,65.8,55.4,29.89,SE,124,1.0,9.0,69,0.00,,---,0.00,VWS V14.00,2013-05-23 23:39:00,
2013-05-23 16:41:00,66.4,55.9,29.89,SSE,161,5.0,9.0,69,0.00,,---,0.00,VWS V14.00,2013-05-23 23:41:00,
2013-05-23 16:43:00,66.6,55.3,29.89,South,171,5.0,9.0,67,0.00,,---,0.00,VWS V14.00,2013-05-23 23:43:00,
2013-05-23 16:44:00,66.5,55.2,29.89,SW,215,4.0,9.0,67,0.00,,---,0.00,VWS V14.00,2013-05-23 23:44:00,
2013-05-23 16:47:00,66.1,55.2,29.89,SSW,203,5.0,9.0,68,0.00,,---,0.00,VWS V14.00,2013-05-23 23:47:00,
2013-05-23 16:48:00,66.1,55.2,29.89,SSW,196,5.0,9.0,68,0.00,,---,0.00,VWS V14.00,2013-05-23 23:48:00,
2013-05-23 16:49:00,65.9,55.0,29.89,SSW,195,3.0,9.0,68,0.00,,---,0.00,VWS V14.00,2013-05-23 23:49:00,
2013-05-23 16:50:00,65.6,55.2,29.89,SW,216,2.0,9.0,69,0.00,,---,0.00,VWS V14.00,2013-05-23 23:50:00,
2013-05-23 16:53:00,65.2,55.2,29.89,WSW,245,2.0,9.0,70,0.00,,---,0.00,VWS V14.00,2013-05-23 23:53:00,
2013-05-23 16:54:00,65.2,55.2,29.89,West,262,0.0,9.0,70,0.00,,---,0.00,VWS V14.00,2013-05-23 23:54:00,
2013-05-23 16:56:00,65.3,55.3,29.89,South,169,4.0,9.0,70,0.00,,---,0.00,VWS V14.00,2013-05-23 23:56:00,
2013-05-23 16:59:00,65.6,55.6,29.89,SSE,161,3.0,9.0,70,0.00,,---,0.00,VWS V14.00,2013-05-23 23:59:00,
2013-05-23 17:00:00,65.9,55.5,29.89,SE,134,4.0,9.0,69,0.00,,---,0.00,VWS V14.00,2013-05-24 00:00:00,
2013-05-23 17:01:00,65.9,55.5,29.89,SSE,152,5.0,7.0,69,0.00,,---,0.00,VWS V14.00,2013-05-24 00:01:00,
2013-05-23 17:02:00,66.1,55.2,29.89,South,173,1.0,7.0,68,0.00,,---,0.00,VWS V14.00,2013-05-24 00:02:00,
2013-05-23 17:04:00,66.4,55.9,29.89,South,191,8.0,8.0,69,0.00,,---,0.00,VWS V14.00,2013-05-24 00:04:00,
2013-05-23 17:05:00,66.3,55.4,29.89,SW,225,7.0,8.0,68,0.00,,---,0.00,VWS V14.00,2013-05-24 00:05:00,
2013-05-23 17:06:00,65.9,55.0,29.89,SSW,198,0.0,8.0,68,0.00,,---,0.00,VWS V14.00,2013-05-24 00:06:00,
2013-05-23 17:07:00,65.7,54.9,29.89,South,174,8.0,8.0,68,0.00,,---,0.00,VWS V14.00,2013-05-24 00:07:00,
2013-05-23 17:10:00,65.1,55.1,29.89,SSE,161,4.0,9.0,70,0.00,,---,0.00,VWS V14.00,2013-05-24 00:10:00,
2013-05-23 17:13:00,64.9,55.3,29.89,SSE,151,6.0,9.0,71,0.00,,---,0.00,VWS V14.00,2013-05-24 00:13:00,
2013-05-23 17:15:00,64.7,54.7,29.89,SSE,148,2.0,9.0,70,0.00,,---,0.00,VWS V14.00,2013-05-24 00:15:00,
2013-05-23 17:16:00,64.6,55.0,29.89,SSE,148,1.0,9.0,71,0.00,,---,0.00,VWS V14.00,2013-05-24 00:16:00,
2013-05-23 17:18:00,64.6,55.4,29.89,South,171,2.0,9.0,72,0.00,,---,0.00,VWS V14.00,2013-05-24 00:18:00,
2013-05-23 17:19:00,64.8,55.6,29.89,SW,232,5.0,9.0,72,0.00,,---,0.00,VWS V14.00,2013-05-24 00:19:00,
2013-05-23 17:20:00,64.9,55.3,29.89,SSW,203,3.0,9.0,71,0.00,,---,0.00,VWS V14.00,2013-05-24 00:20:00,
2013-05-23 17:24:00,64.8,55.6,29.89,SW,225,4.0,9.0,72,0.00,,---,0.00,VWS V14.00,2013-05-24 00:24:00,
2013-05-23 17:25:00,64.9,55.3,29.89,SSE,148,0.0,9.0,71,0.00,,---,0.00,VWS V14.00,2013-05-24 00:25:00,
2013-05-23 17:26:00,64.9,55.7,29.89,SE,142,3.0,9.0,72,0.00,,---,0.00,VWS V14.00,2013-05-24 00:26:00,
2013-05-23 17:27:00,65.1,55.9,29.89,SSE,163,5.0,9.0,72,0.00,,---,0.00,VWS V14.00,2013-05-24 00:27:00,
2013-05-23 17:30:00,65.2,55.2,29.88,South,186,8.0,9.0,70,0.00,,---,0.00,VWS V14.00,2013-05-24 00:30:00,
2013-05-23 17:31:00,65.2,55.2,29.88,South,188,6.0,6.0,70,0.00,,---,0.00,VWS V14.00,2013-05-24 00:31:00,
2013-05-23 17:33:00,64.9,54.9,29.88,SSE,154,4.0,7.0,70,0.00,,---,0.00,VWS V14.00,2013-05-24 00:33:00,
2013-05-23 17:36:00,64.5,54.9,29.88,SE,133,4.0,8.0,71,0.00,,---,0.00,VWS V14.00,2013-05-24 00:36:00,
2013-05-23 17:37:00,64.6,55.4,29.88,SSW,194,7.0,8.0,72,0.00,,---,0.00,VWS V14.00,2013-05-24 00:37:00,
2013-05-23 17:38:00,64.7,55.1,29.88,SSW,207,5.0,8.0,71,0.00,,---,0.00,VWS V14.00,2013-05-24 00:38:00,
2013-05-23 17:41:00,64.8,55.0,29.88,South,190,1.0,8.0,71,0.00,,,0.00,weatherlink.com 1.10,2013-05-24 00:41:00,
2013-05-23 17:42:00,64.8,55.2,29.88,SSE,153,2.0,8.0,71,0.00,,---,0.00,VWS V14.00,2013-05-24 00:42:00,
2013-05-23 17:43:00,64.8,55.2,29.88,SSW,194,6.0,8.0,71,0.00,,---,0.00,VWS V14.00,2013-05-24 00:43:00,
2013-05-23 17:44:00,64.8,54.8,29.88,South,180,2.0,8.0,70,0.00,,---,0.00,VWS V14.00,2013-05-24 00:44:00,
2013-05-23 17:47:00,64.6,55.0,29.88,SSE,163,5.0,8.0,71,0.00,,---,0.00,VWS V14.00,2013-05-24 00:47:00,
2013-05-23 17:48:00,64.5,54.9,29.88,South,174,0.0,8.0,71,0.00,,---,0.00,VWS V14.00,2013-05-24 00:48:00,
2013-05-23 17:49:00,64.5,54.9,29.88,South,178,0.0,8.0,71,0.00,,---,0.00,VWS V14.00,2013-05-24 00:49:00,
2013-05-23 17:50:00,64.5,54.9,29.88,SSE,162,4.0,8.0,71,0.00,,---,0.00,VWS V14.00,2013-05-24 00:50:00,
2013-05-23 17:52:00,64.6,55.0,29.88,SSE,148,5.0,8.0,71,0.00,,---,0.00,VWS V14.00,2013-05-24 00:52:00,
2013-05-23 17:53:00,64.7,55.1,29.88,SE,140,3.0,8.0,71,0.00,,---,0.00,VWS V14.00,2013-05-24 00:53:00,
2013-05-23 17:54:00,64.9,55.3,29.88,SSE,153,2.0,8.0,71,0.00,,---,0.00,VWS V14.00,2013-05-24 00:54:00,
2013-05-23 17:55:00,64.9,55.3,29.88,SSE,153,2.0,8.0,71,0.00,,---,0.00,VWS V14.00,2013-05-24 00:55:00,
2013-05-23 17:56:00,64.9,55.3,29.88,SSW,212,2.0,8.0,71,0.00,,---,0.00,VWS V14.00,2013-05-24 00:56:00,
2013-05-23 17:58:00,64.8,55.0,29.88,South,174,1.0,6.0,71,0.00,,,0.00,weatherlink.com 1.10,2013-05-24 00:58:00,
2013-05-23 18:00:00,65.0,55.4,29.88,SSE,165,3.0,8.0,71,0.00,,---,0.00,VWS V14.00,2013-05-24 01:00:00,
2013-05-23 18:01:00,65.0,55.0,29.88,SE,137,4.0,6.0,70,0.00,,---,0.00,VWS V14.00,2013-05-24 01:01:00,
2013-05-23 18:02:00,64.9,54.9,29.88,SSE,155,4.0,6.0,70,0.00,,---,0.00,VWS V14.00,2013-05-24 01:02:00,
2013-05-23 18:03:00,64.9,55.3,29.88,SSW,205,1.0,6.0,71,0.00,,---,0.00,VWS V14.00,2013-05-24 01:03:00,
2013-05-23 18:04:00,64.9,55.3,29.88,SE,131,3.0,6.0,71,0.00,,---,0.00,VWS V14.00,2013-05-24 01:04:00,
2013-05-23 18:06:00,64.9,54.9,29.88,South,184,3.0,6.0,70,0.00,,---,0.00,VWS V14.00,2013-05-24 01:06:00,
2013-05-23 18:07:00,65.0,55.0,29.88,WSW,243,2.0,6.0,70,0.00,,---,0.00,VWS V14.00,2013-05-24 01:07:00,
2013-05-23 18:09:00,64.9,54.9,29.88,SSW,204,3.0,6.0,70,0.00,,---,0.00,VWS V14.00,2013-05-24 01:09:00,
2013-05-23 18:10:00,64.9,55.3,29.88,SW,223,3.0,6.0,71,0.00,,---,0.00,VWS V14.00,2013-05-24 01:10:00,
2013-05-23 18:12:00,64.7,55.1,29.88,South,178,2.0,6.0,71,0.00,,---,0.00,VWS V14.00,2013-05-24 01:12:00,
2013-05-23 18:13:00,64.6,55.0,29.88,South,191,1.0,6.0,71,0.00,,---,0.00,VWS V14.00,2013-05-24 01:13:00,
2013-05-23 18:15:00,64.6,54.6,29.89,SSE,166,2.0,6.0,70,0.00,,---,0.00,VWS V14.00,2013-05-24 01:15:00,
2013-05-23 18:17:00,64.5,54.9,29.89,South,184,5.0,6.0,71,0.00,,---,0.00,VWS V14.00,2013-05-24 01:17:00,
2013-05-23 18:18:00,64.5,54.9,29.89,South,183,4.0,6.0,71,0.00,,---,0.00,VWS V14.00,2013-05-24 01:18:00,
2013-05-23 18:21:00,64.3,55.1,29.89,WSW,254,3.0,6.0,72,0.00,,---,0.00,VWS V14.00,2013-05-24 01:21:00,
2013-05-23 18:22:00,64.3,55.1,29.89,WSW,247,4.0,6.0,72,0.00,,---,0.00,VWS V14.00,2013-05-24 01:22:00,
2013-05-23 18:25:00,64.1,54.9,29.89,WSW,238,5.0,7.0,72,0.00,,---,0.00,VWS V14.00,2013-05-24 01:25:00,
2013-05-23 18:27:00,63.9,55.1,29.89,South,187,2.0,7.0,73,0.00,,---,0.00,VWS V14.00,2013-05-24 01:27:00,
2013-05-23 18:28:00,64.0,55.2,29.89,SW,219,4.0,7.0,73,0.00,,---,0.00,VWS V14.00,2013-05-24 01:28:00,
2013-05-23 18:29:00,64.0,55.2,29.89,WSW,257,4.0,7.0,73,0.00,,---,0.00,VWS V14.00,2013-05-24 01:29:00,
2013-05-23 18:30:00,64.0,54.8,29.89,West,274,5.0,7.0,72,0.00,,---,0.00,VWS V14.00,2013-05-24 01:30:00,
2013-05-23 18:32:00,63.8,54.6,29.89,NW,306,4.0,5.0,72,0.00,,---,0.00,VWS V14.00,2013-05-24 01:32:00,
2013-05-23 18:34:00,63.5,54.7,29.89,WNW,288,2.0,5.0,73,0.00,,---,0.00,VWS V14.00,2013-05-24 01:34:00,
2013-05-23 18:35:00,63.5,54.7,29.89,WSW,254,5.0,5.0,73,0.00,,---,0.00,VWS V14.00,2013-05-24 01:35:00,
2013-05-23 18:36:00,63.4,54.6,29.89,West,271,4.0,5.0,73,0.00,,---,0.00,VWS V14.00,2013-05-24 01:36:00,
2013-05-23 18:37:00,63.3,54.5,29.89,West,270,2.0,5.0,73,0.00,,---,0.00,VWS V14.00,2013-05-24 01:37:00,
2013-05-23 18:38:00,63.2,54.4,29.89,West,279,6.0,7.0,73,0.00,,---,0.00,VWS V14.00,2013-05-24 01:38:00,
2013-05-23 18:39:00,63.1,54.3,29.89,West,279,1.0,7.0,73,0.00,,---,0.00,VWS V14.00,2013-05-24 01:39:00,
2013-05-23 18:41:00,63.1,54.3,29.89,West,277,4.0,7.0,73,0.00,,---,0.00,VWS V14.00,2013-05-24 01:41:00,
2013-05-23 18:43:00,63.1,54.7,29.89,West,273,6.0,7.0,74,0.00,,---,0.00,VWS V14.00,2013-05-24 01:43:00,
2013-05-23 18:44:00,63.0,54.6,29.89,WSW,237,5.0,8.0,74,0.00,,---,0.00,VWS V14.00,2013-05-24 01:44:00,
2013-05-23 18:46:00,63.0,54.6,29.89,WSW,251,7.0,8.0,74,0.00,,---,0.00,VWS V14.00,2013-05-24 01:46:00,
2013-05-23 18:47:00,62.9,54.9,29.89,West,273,7.0,9.0,75,0.00,,---,0.00,VWS V14.00,2013-05-24 01:47:00,
2013-05-23 18:50:00,62.7,55.0,29.89,WSW,242,6.0,10.0,76,0.00,,---,0.00,VWS V14.00,2013-05-24 01:50:00,
2013-05-23 18:52:00,62.6,54.9,29.89,WNW,294,7.0,10.0,76,0.00,,---,0.00,VWS V14.00,2013-05-24 01:52:00,
2013-05-23 18:53:00,62.5,55.2,29.89,West,279,5.0,10.0,77,0.00,,---,0.00,VWS V14.00,2013-05-24 01:53:00,
2013-05-23 18:55:00,62.4,55.1,29.89,WNW,297,4.0,10.0,77,0.00,,---,0.00,VWS V14.00,2013-05-24 01:55:00,
2013-05-23 18:56:00,62.4,55.1,29.89,WNW,299,4.0,10.0,77,0.00,,---,0.00,VWS V14.00,2013-05-24 01:56:00,
2013-05-23 18:57:00,62.5,55.2,29.89,WSW,238,6.0,10.0,77,0.00,,---,0.00,VWS V14.00,2013-05-24 01:57:00,
2013-05-23 19:00:00,62.6,55.3,29.89,WNW,297,6.0,10.0,77,0.00,,---,0.00,VWS V14.00,2013-05-24 02:00:00,
2013-05-23 19:01:00,62.5,55.2,29.89,WNW,288,3.0,4.0,77,0.00,,---,0.00,VWS V14.00,2013-05-24 02:01:00,
2013-05-23 19:02:00,62.6,55.3,29.89,West,281,7.0,8.0,77,0.00,,---,0.00,VWS V14.00,2013-05-24 02:02:00,
2013-05-23 19:03:00,62.5,55.2,29.89,WSW,258,9.0,9.0,77,0.00,,---,0.00,VWS V14.00,2013-05-24 02:03:00,
2013-05-23 19:06:00,62.3,55.4,29.89,WSW,250,8.0,9.0,78,0.00,,---,0.00,VWS V14.00,2013-05-24 02:06:00,
2013-05-23 19:07:00,62.2,55.3,29.89,West,261,7.0,9.0,78,0.00,,---,0.00,VWS V14.00,2013-05-24 02:07:00,
2013-05-23 19:08:00,62.1,55.2,29.89,WSW,238,7.0,9.0,78,0.00,,---,0.00,VWS V14.00,2013-05-24 02:08:00,
2013-05-23 19:09:00,62.1,55.2,29.89,West,264,6.0,9.0,78,0.00,,---,0.00,VWS V14.00,2013-05-24 02:09:00,
2013-05-23 19:11:00,62.0,55.4,29.89,WNW,290,4.0,9.0,79,0.00,,---,0.00,VWS V14.00,2013-05-24 02:11:00,
2013-05-23 19:12:00,61.9,55.3,29.89,West,265,1.0,9.0,79,0.00,,---,0.00,VWS V14.00,2013-05-24 02:12:00,
2013-05-23 19:14:00,61.8,55.2,29.89,WNW,284,4.0,9.0,79,0.00,,---,0.00,VWS V14.00,2013-05-24 02:14:00,
2013-05-23 19:15:00,61.8,55.2,29.89,WNW,288,5.0,9.0,79,0.00,,---,0.00,VWS V14.00,2013-05-24 02:15:00,
2013-05-23 19:17:00,61.7,55.5,29.89,WSW,250,4.0,9.0,80,0.00,,---,0.00,VWS V14.00,2013-05-24 02:17:00,
2013-05-23 19:19:00,61.6,55.4,29.89,West,260,7.0,9.0,80,0.00,,---,0.00,VWS V14.00,2013-05-24 02:19:00,
2013-05-23 19:20:00,61.6,55.4,29.89,West,263,4.0,9.0,80,0.00,,---,0.00,VWS V14.00,2013-05-24 02:20:00,
2013-05-23 19:21:00,61.6,55.7,29.89,West,276,6.0,9.0,81,0.00,,---,0.00,VWS V14.00,2013-05-24 02:21:00,
2013-05-23 19:22:00,61.6,55.7,29.89,WNW,298,4.0,9.0,81,0.00,,---,0.00,VWS V14.00,2013-05-24 02:22:00,
2013-05-23 19:26:00,61.4,55.5,29.89,West,263,4.0,9.0,81,0.00,,---,0.00,VWS V14.00,2013-05-24 02:26:00,
2013-05-23 19:27:00,61.4,55.5,29.89,West,261,3.0,9.0,81,0.00,,---,0.00,VWS V14.00,2013-05-24 02:27:00,
2013-05-23 19:29:00,61.4,55.5,29.89,West,278,3.0,9.0,81,0.00,,---,0.00,VWS V14.00,2013-05-24 02:29:00,
2013-05-23 19:30:00,61.4,55.9,29.89,West,277,2.0,9.0,82,0.00,,---,0.00,VWS V14.00,2013-05-24 02:30:00,
2013-05-23 19:31:00,61.4,55.9,29.89,West,277,2.0,2.0,82,0.00,,---,0.00,VWS V14.00,2013-05-24 02:31:00,
2013-05-23 19:33:00,61.5,56.0,29.89,WNW,296,3.0,5.0,82,0.00,,---,0.00,VWS V14.00,2013-05-24 02:33:00,
2013-05-23 19:34:00,61.6,56.1,29.89,West,276,5.0,5.0,82,0.00,,---,0.00,VWS V14.00,2013-05-24 02:34:00,
2013-05-23 19:36:00,61.6,56.1,29.89,WNW,288,2.0,5.0,82,0.00,,---,0.00,VWS V14.00,2013-05-24 02:36:00,
2013-05-23 19:37:00,61.6,56.1,29.89,West,267,3.0,5.0,82,0.00,,---,0.00,VWS V14.00,2013-05-24 02:37:00,
2013-05-23 19:39:00,61.6,55.7,29.89,NW,314,5.0,7.0,81,0.00,,---,0.00,VWS V14.00,2013-05-24 02:39:00,
2013-05-23 19:41:00,61.6,56.1,29.89,West,279,3.0,7.0,82,0.00,,---,0.00,VWS V14.00,2013-05-24 02:41:00,
2013-05-23 19:43:00,61.6,56.1,29.89,NW,305,7.0,7.0,82,0.00,,---,0.00,VWS V14.00,2013-05-24 02:43:00,
2013-05-23 19:44:00,61.6,55.7,29.89,WNW,299,5.0,7.0,81,0.00,,---,0.00,VWS V14.00,2013-05-24 02:44:00,
2013-05-23 19:45:00,61.5,55.6,29.89,WNW,297,4.0,7.0,81,0.00,,---,0.00,VWS V14.00,2013-05-24 02:45:00,
2013-05-23 19:46:00,61.5,55.6,29.89,NW,311,5.0,7.0,81,0.00,,---,0.00,VWS V14.00,2013-05-24 02:46:00,
2013-05-23 19:48:00,61.5,55.6,29.89,WNW,290,2.0,7.0,81,0.00,,---,0.00,VWS V14.00,2013-05-24 02:48:00,
2013-05-23 19:50:00,61.5,55.6,29.89,West,279,2.0,7.0,81,0.00,,---,0.00,VWS V14.00,2013-05-24 02:50:00,
2013-05-23 19:52:00,61.4,55.5,29.89,West,261,6.0,7.0,81,0.00,,---,0.00,VWS V14.00,2013-05-24 02:52:00,
2013-05-23 19:54:00,61.4,55.5,29.89,WSW,250,4.0,7.0,81,0.00,,---,0.00,VWS V14.00,2013-05-24 02:54:00,
2013-05-23 19:56:00,61.3,55.8,29.89,WNW,286,3.0,7.0,82,0.00,,---,0.00,VWS V14.00,2013-05-24 02:56:00,
2013-05-23 19:58:00,61.3,55.8,29.89,WNW,286,3.0,7.0,82,0.00,,---,0.00,VWS V14.00,2013-05-24 02:58:00,
2013-05-23 20:00:00,61.3,55.8,29.89,WNW,293,3.0,7.0,82,0.00,,---,0.00,VWS V14.00,2013-05-24 03:00:00,
2013-05-23 20:02:00,61.3,55.8,29.89,WNW,284,3.0,5.0,82,0.00,,---,0.00,VWS V14.00,2013-05-24 03:02:00,
2013-05-23 20:04:00,61.3,55.8,29.89,NW,316,3.0,5.0,82,0.00,,---,0.00,VWS V14.00,2013-05-24 03:04:00,
2013-05-23 20:05:00,61.3,55.8,29.89,NW,309,1.0,5.0,82,0.00,,---,0.00,VWS V14.00,2013-05-24 03:05:00,
2013-05-23 20:06:00,61.3,55.8,29.89,NW,315,3.0,5.0,82,0.00,,---,0.00,VWS V14.00,2013-05-24 03:06:00,
2013-05-23 20:08:00,61.3,55.8,29.89,WNW,284,2.0,6.0,82,0.00,,---,0.00,VWS V14.00,2013-05-24 03:08:00,
2013-05-23 20:09:00,61.3,55.8,29.89,WNW,293,1.0,6.0,82,0.00,,---,0.00,VWS V14.00,2013-05-24 03:09:00,
2013-05-23 20:10:00,61.3,55.8,29.89,WNW,300,2.0,6.0,82,0.00,,---,0.00,VWS V14.00,2013-05-24 03:10:00,
2013-05-23 20:11:00,61.3,55.8,29.89,NW,310,3.0,6.0,82,0.00,,---,0.00,VWS V14.00,2013-05-24 03:11:00,
2013-05-23 20:15:00,61.2,56.0,29.89,WNW,292,4.0,6.0,83,0.00,,---,0.00,VWS V14.00,2013-05-24 03:15:00,
2013-05-23 20:16:00,61.2,56.0,29.89,NW,319,4.0,6.0,83,0.00,,---,0.00,VWS V14.00,2013-05-24 03:16:00,
2013-05-23 20:19:00,61.1,55.9,29.89,WNW,292,3.0,6.0,83,0.00,,---,0.00,VWS V14.00,2013-05-24 03:19:00,
2013-05-23 20:21:00,61.2,56.0,29.89,WNW,288,1.0,6.0,83,0.00,,---,0.00,VWS V14.00,2013-05-24 03:21:00,
2013-05-23 20:22:00,61.2,56.0,29.89,West,266,1.0,6.0,83,0.00,,---,0.00,VWS V14.00,2013-05-24 03:22:00,
2013-05-23 20:24:00,61.2,56.0,29.89,WNW,287,4.0,6.0,83,0.00,,---,0.00,VWS V14.00,2013-05-24 03:24:00,
2013-05-23 20:27:00,61.2,56.0,29.89,WNW,294,1.0,6.0,83,0.00,,---,0.00,VWS V14.00,2013-05-24 03:27:00,
2013-05-23 20:28:00,61.2,56.0,29.89,WNW,294,2.0,6.0,83,0.00,,---,0.00,VWS V14.00,2013-05-24 03:28:00,
2013-05-23 20:29:00,61.2,56.0,29.89,WNW,295,2.0,6.0,83,0.00,,---,0.00,VWS V14.00,2013-05-24 03:29:00,
2013-05-23 20:30:00,61.2,56.0,29.89,WNW,286,1.0,6.0,83,0.00,,---,0.00,VWS V14.00,2013-05-24 03:30:00,
2013-05-23 20:32:00,61.1,55.9,29.89,West,262,3.0,3.0,83,0.00,,---,0.00,VWS V14.00,2013-05-24 03:32:00,
2013-05-23 20:34:00,61.1,55.9,29.89,West,277,1.0,3.0,83,0.00,,---,0.00,VWS V14.00,2013-05-24 03:34:00,
2013-05-23 20:35:00,61.1,55.9,29.89,West,277,1.0,3.0,83,0.00,,---,0.00,VWS V14.00,2013-05-24 03:35:00,
2013-05-23 20:38:00,61.1,55.9,29.89,NW,317,4.0,4.0,83,0.00,,---,0.00,VWS V14.00,2013-05-24 03:38:00,
2013-05-23 20:39:00,61.1,55.9,29.89,NW,304,1.0,4.0,83,0.00,,---,0.00,VWS V14.00,2013-05-24 03:39:00,
2013-05-23 20:40:00,61.0,55.8,29.89,West,272,3.0,4.0,83,0.00,,---,0.00,VWS V14.00,2013-05-24 03:40:00,
2013-05-23 20:42:00,61.0,55.8,29.89,WNW,284,1.0,4.0,83,0.00,,---,0.00,VWS V14.00,2013-05-24 03:42:00,
2013-05-23 20:44:00,61.0,55.8,29.89,WNW,285,0.0,4.0,83,0.00,,---,0.00,VWS V14.00,2013-05-24 03:44:00,
2013-05-23 20:45:00,61.0,55.8,29.89,WNW,285,1.0,4.0,83,0.00,,---,0.00,VWS V14.00,2013-05-24 03:45:00,
2013-05-23 20:47:00,61.0,55.8,29.89,WNW,286,2.0,4.0,83,0.00,,---,0.00,VWS V14.00,2013-05-24 03:47:00,
2013-05-23 20:50:00,60.9,56.0,29.89,NW,313,0.0,4.0,83,0.00,,,0.00,weatherlink.com 1.10,2013-05-24 03:50:00,
2013-05-23 20:52:00,61.0,55.8,29.89,NW,306,3.0,4.0,83,0.00,,---,0.00,VWS V14.00,2013-05-24 03:52:00,
2013-05-23 20:53:00,61.0,55.8,29.89,WNW,298,2.0,4.0,83,0.00,,---,0.00,VWS V14.00,2013-05-24 03:53:00,
2013-05-23 20:55:00,61.0,55.8,29.89,WNW,302,0.0,4.0,83,0.00,,---,0.00,VWS V14.00,2013-05-24 03:55:00,
2013-05-23 20:59:00,61.0,55.8,29.89,NW,305,1.0,4.0,83,0.00,,---,0.00,VWS V14.00,2013-05-24 03:59:00,
2013-05-23 21:00:00,61.0,55.8,29.90,WNW,286,1.0,4.0,83,0.00,,---,0.00,VWS V14.00,2013-05-24 04:00:00,
2013-05-23 21:01:00,61.0,55.8,29.90,WNW,286,3.0,4.0,83,0.00,,---,0.00,VWS V14.00,2013-05-24 04:01:00,
2013-05-23 21:03:00,61.0,55.8,29.90,WNW,284,4.0,4.0,83,0.00,,---,0.00,VWS V14.00,2013-05-24 04:03:00,
2013-05-23 21:04:00,60.9,55.7,29.90,WNW,288,3.0,4.0,83,0.00,,---,0.00,VWS V14.00,2013-05-24 04:04:00,
2013-05-23 21:06:00,60.9,55.7,29.90,WNW,284,1.0,4.0,83,0.00,,---,0.00,VWS V14.00,2013-05-24 04:06:00,
2013-05-23 21:08:00,60.9,55.7,29.90,WNW,292,1.0,4.0,83,0.00,,---,0.00,VWS V14.00,2013-05-24 04:08:00,
2013-05-23 21:09:00,60.9,55.7,29.90,WNW,292,2.0,4.0,83,0.00,,---,0.00,VWS V14.00,2013-05-24 04:09:00,
2013-05-23 21:12:00,60.9,55.7,29.90,West,267,3.0,4.0,83,0.00,,---,0.00,VWS V14.00,2013-05-24 04:12:00,
2013-05-23 21:13:00,60.9,55.7,29.90,West,279,2.0,4.0,83,0.00,,---,0.00,VWS V14.00,2013-05-24 04:13:00,
2013-05-23 21:14:00,60.9,55.7,29.90,West,279,0.0,4.0,83,0.00,,---,0.00,VWS V14.00,2013-05-24 04:14:00,
2013-05-23 21:16:00,60.9,55.7,29.90,West,279,2.0,4.0,83,0.00,,---,0.00,VWS V14.00,2013-05-24 04:16:00,
2013-05-23 21:18:00,60.9,56.0,29.90,WNW,284,2.0,4.0,84,0.00,,---,0.00,VWS V14.00,2013-05-24 04:18:00,
2013-05-23 21:19:00,60.9,56.0,29.90,West,271,1.0,4.0,84,0.00,,---,0.00,VWS V14.00,2013-05-24 04:19:00,
2013-05-23 21:21:00,60.9,56.0,29.90,West,271,3.0,4.0,84,0.00,,---,0.00,VWS V14.00,2013-05-24 04:21:00,
2013-05-23 21:22:00,60.9,56.0,29.90,West,271,2.0,4.0,84,0.00,,---,0.00,VWS V14.00,2013-05-24 04:22:00,
2013-05-23 21:25:00,60.8,55.9,29.90,West,280,3.0,4.0,84,0.00,,---,0.00,VWS V14.00,2013-05-24 04:25:00,
2013-05-23 21:26:00,60.8,55.9,29.90,West,275,2.0,4.0,84,0.00,,---,0.00,VWS V14.00,2013-05-24 04:26:00,
2013-05-23 21:28:00,60.8,55.9,29.90,WSW,257,3.0,4.0,84,0.00,,---,0.00,VWS V14.00,2013-05-24 04:28:00,
2013-05-23 21:30:00,60.8,55.6,29.91,WSW,250,3.0,4.0,83,0.00,,---,0.00,VWS V14.00,2013-05-24 04:30:00,
2013-05-23 21:31:00,60.9,55.7,29.91,WSW,258,1.0,2.0,83,0.00,,---,0.00,VWS V14.00,2013-05-24 04:31:00,
2013-05-23 21:32:00,60.9,55.7,29.91,West,263,1.0,3.0,83,0.00,,---,0.00,VWS V14.00,2013-05-24 04:32:00,
2013-05-23 21:33:00,60.9,55.7,29.91,West,273,3.0,4.0,83,0.00,,---,0.00,VWS V14.00,2013-05-24 04:33:00,
2013-05-23 21:35:00,61.0,55.8,29.91,West,265,2.0,4.0,83,0.00,,---,0.00,VWS V14.00,2013-05-24 04:35:00,
2013-05-23 21:38:00,61.1,56.2,29.91,WSW,252,1.0,4.0,84,0.00,,---,0.00,VWS V14.00,2013-05-24 04:38:00,
2013-05-23 21:39:00,61.1,56.2,29.91,WSW,252,0.0,4.0,84,0.00,,---,0.00,VWS V14.00,2013-05-24 04:39:00,
2013-05-23 21:40:00,61.1,56.2,29.91,WSW,252,1.0,4.0,84,0.00,,---,0.00,VWS V14.00,2013-05-24 04:40:00,
2013-05-23 21:41:00,61.1,56.2,29.91,WSW,252,0.0,4.0,84,0.00,,---,0.00,VWS V14.00,2013-05-24 04:41:00,
2013-05-23 21:44:00,61.2,56.3,29.91,WSW,252,2.0,4.0,84,0.00,,---,0.00,VWS V14.00,2013-05-24 04:44:00,
2013-05-23 21:45:00,61.2,56.3,29.91,WSW,252,1.0,4.0,84,0.00,,---,0.00,VWS V14.00,2013-05-24 04:45:00,
2013-05-23 21:46:00,61.2,56.3,29.91,West,265,3.0,4.0,84,0.00,,---,0.00,VWS V14.00,2013-05-24 04:46:00,
2013-05-23 21:49:00,61.2,56.3,29.91,West,264,2.0,4.0,84,0.00,,---,0.00,VWS V14.00,2013-05-24 04:49:00,
2013-05-23 21:50:00,61.2,56.3,29.91,WNW,283,3.0,5.0,84,0.00,,---,0.00,VWS V14.00,2013-05-24 04:50:00,
2013-05-23 21:51:00,61.2,56.3,29.91,WNW,282,3.0,5.0,84,0.00,,---,0.00,VWS V14.00,2013-05-24 04:51:00,
2013-05-23 21:52:00,61.2,56.3,29.91,West,277,3.0,5.0,84,0.00,,---,0.00,VWS V14.00,2013-05-24 04:52:00,
2013-05-23 21:54:00,61.2,56.3,29.91,West,279,4.0,5.0,84,0.00,,---,0.00,VWS V14.00,2013-05-24 04:54:00,
2013-05-23 21:56:00,61.2,56.3,29.91,WSW,252,2.0,5.0,84,0.00,,---,0.00,VWS V14.00,2013-05-24 04:56:00,
2013-05-23 21:58:00,61.3,56.4,29.91,WSW,251,3.0,5.0,84,0.00,,---,0.00,VWS V14.00,2013-05-24 04:58:00,
2013-05-23 22:00:00,61.3,56.1,29.92,West,261,3.0,5.0,83,0.00,,---,0.00,VWS V14.00,2013-05-24 05:00:00,
2013-05-23 22:01:00,61.3,56.1,29.92,WSW,248,3.0,4.0,83,0.00,,---,0.00,VWS V14.00,2013-05-24 05:01:00,
2013-05-23 22:02:00,61.3,56.1,29.92,WSW,250,4.0,4.0,83,0.00,,---,0.00,VWS V14.00,2013-05-24 05:02:00,
2013-05-23 22:03:00,61.3,56.1,29.92,West,264,1.0,5.0,83,0.00,,---,0.00,VWS V14.00,2013-05-24 05:03:00,
2013-05-23 22:04:00,61.4,56.2,29.92,West,274,3.0,5.0,83,0.00,,---,0.00,VWS V14.00,2013-05-24 05:04:00,
2013-05-23 22:07:00,61.3,56.1,29.92,West,265,1.0,5.0,83,0.00,,---,0.00,VWS V14.00,2013-05-24 05:07:00,
2013-05-23 22:08:00,61.3,56.1,29.92,WSW,239,0.0,5.0,83,0.00,,---,0.00,VWS V14.00,2013-05-24 05:08:00,
2013-05-23 22:09:00,61.3,56.1,29.92,West,259,1.0,5.0,83,0.00,,---,0.00,VWS V14.00,2013-05-24 05:09:00,
2013-05-23 22:12:00,61.3,56.1,29.92,West,259,2.0,5.0,83,0.00,,---,0.00,VWS V14.00,2013-05-24 05:12:00,
2013-05-23 22:13:00,61.3,56.1,29.92,WSW,257,4.0,5.0,83,0.00,,---,0.00,VWS V14.00,2013-05-24 05:13:00,
2013-05-23 22:14:00,61.3,56.1,29.92,West,265,4.0,5.0,83,0.00,,---,0.00,VWS V14.00,2013-05-24 05:14:00,
2013-05-23 22:15:00,61.3,56.1,29.92,West,269,2.0,5.0,83,0.00,,---,0.00,VWS V14.00,2013-05-24 05:15:00,
2013-05-23 22:19:00,61.3,56.1,29.92,West,273,3.0,5.0,83,0.00,,---,0.00,VWS V14.00,2013-05-24 05:19:00,
2013-05-23 22:20:00,61.3,56.1,29.92,West,269,2.0,5.0,83,0.00,,---,0.00,VWS V14.00,2013-05-24 05:20:00,
2013-05-23 22:21:00,61.3,56.1,29.92,West,272,3.0,5.0,83,0.00,,---,0.00,VWS V14.00,2013-05-24 05:21:00,
2013-05-23 22:23:00,61.4,56.2,29.92,West,269,4.0,5.0,83,0.00,,---,0.00,VWS V14.00,2013-05-24 05:23:00,
2013-05-23 22:24:00,61.4,56.2,29.92,WNW,294,3.0,5.0,83,0.00,,---,0.00,VWS V14.00,2013-05-24 05:24:00,
2013-05-23 22:27:00,61.4,56.2,29.92,West,266,0.0,5.0,83,0.00,,---,0.00,VWS V14.00,2013-05-24 05:27:00,
2013-05-23 22:28:00,61.4,56.2,29.92,West,271,3.0,5.0,83,0.00,,---,0.00,VWS V14.00,2013-05-24 05:28:00,
2013-05-23 22:29:00,61.4,56.2,29.92,West,265,3.0,5.0,83,0.00,,---,0.00,VWS V14.00,2013-05-24 05:29:00,
2013-05-23 22:30:00,61.3,56.1,29.92,WSW,247,4.0,5.0,83,0.00,,---,0.00,VWS V14.00,2013-05-24 05:30:00,
2013-05-23 22:32:00,61.3,56.1,29.92,WNW,284,2.0,4.0,83,0.00,,---,0.00,VWS V14.00,2013-05-24 05:32:00,
2013-05-23 22:34:00,61.3,56.1,29.92,West,281,4.0,5.0,83,0.00,,---,0.00,VWS V14.00,2013-05-24 05:34:00,
2013-05-23 22:35:00,61.3,56.1,29.92,West,269,3.0,5.0,83,0.00,,---,0.00,VWS V14.00,2013-05-24 05:35:00,
2013-05-23 22:37:00,61.3,56.1,29.92,West,273,3.0,5.0,83,0.00,,---,0.00,VWS V14.00,2013-05-24 05:37:00,
2013-05-23 22:38:00,61.3,56.1,29.92,WSW,254,5.0,5.0,83,0.00,,---,0.00,VWS V14.00,2013-05-24 05:38:00,
2013-05-23 22:39:00,61.3,56.1,29.92,West,259,4.0,5.0,83,0.00,,---,0.00,VWS V14.00,2013-05-24 05:39:00,
2013-05-23 22:40:00,61.3,56.1,29.92,West,262,3.0,5.0,83,0.00,,---,0.00,VWS V14.00,2013-05-24 05:40:00,
2013-05-23 22:43:00,61.3,56.1,29.92,West,273,0.0,5.0,83,0.00,,---,0.00,VWS V14.00,2013-05-24 05:43:00,
2013-05-23 22:44:00,61.3,56.1,29.92,West,281,4.0,5.0,83,0.00,,---,0.00,VWS V14.00,2013-05-24 05:44:00,
2013-05-23 22:46:00,61.3,55.8,29.92,WSW,239,2.0,5.0,82,0.00,,---,0.00,VWS V14.00,2013-05-24 05:46:00,
2013-05-23 22:48:00,61.3,55.8,29.92,West,279,1.0,5.0,82,0.00,,---,0.00,VWS V14.00,2013-05-24 05:48:00,
2013-05-23 22:49:00,61.2,55.7,29.92,WSW,255,3.0,5.0,82,0.00,,---,0.00,VWS V14.00,2013-05-24 05:49:00,
2013-05-23 22:50:00,61.2,55.7,29.92,West,267,2.0,5.0,82,0.00,,---,0.00,VWS V14.00,2013-05-24 05:50:00,
2013-05-23 22:51:00,61.3,55.8,29.92,WNW,284,2.0,5.0,82,0.00,,---,0.00,VWS V14.00,2013-05-24 05:51:00,
2013-05-23 22:54:00,61.3,55.8,29.92,WNW,299,3.0,5.0,82,0.00,,---,0.00,VWS V14.00,2013-05-24 05:54:00,
2013-05-23 22:55:00,61.3,55.8,29.92,WNW,284,2.0,5.0,82,0.00,,---,0.00,VWS V14.00,2013-05-24 05:55:00,
2013-05-23 22:56:00,61.3,55.8,29.92,WNW,303,2.0,5.0,82,0.00,,---,0.00,VWS V14.00,2013-05-24 05:56:00,
2013-05-23 22:59:00,61.3,55.8,29.92,WNW,302,1.0,5.0,82,0.00,,---,0.00,VWS V14.00,2013-05-24 05:59:00,
2013-05-23 23:00:00,61.2,55.7,29.92,WNW,302,1.0,5.0,82,0.00,,---,0.00,VWS V14.00,2013-05-24 06:00:00,
2013-05-23 23:02:00,61.3,55.8,29.92,WNW,302,1.0,2.0,82,0.00,,---,0.00,VWS V14.00,2013-05-24 06:02:00,
2013-05-23 23:05:00,61.3,55.8,29.92,NW,311,2.0,3.0,82,0.00,,---,0.00,VWS V14.00,2013-05-24 06:05:00,
2013-05-23 23:06:00,61.3,55.8,29.92,NW,311,2.0,3.0,82,0.00,,---,0.00,VWS V14.00,2013-05-24 06:06:00,
2013-05-23 23:09:00,61.3,55.8,29.92,NW,315,0.0,3.0,82,0.00,,---,0.00,VWS V14.00,2013-05-24 06:09:00,
2013-05-23 23:10:00,61.3,55.8,29.92,NW,315,0.0,3.0,82,0.00,,---,0.00,VWS V14.00,2013-05-24 06:10:00,
2013-05-23 23:11:00,61.3,55.8,29.92,SE,134,2.0,3.0,82,0.00,,---,0.00,VWS V14.00,2013-05-24 06:11:00,
2013-05-23 23:12:00,61.3,55.4,29.92,SSE,153,0.0,3.0,81,0.00,,---,0.00,VWS V14.00,2013-05-24 06:12:00,
2013-05-23 23:15:00,61.0,54.8,29.92,ENE,76,2.0,3.0,80,0.00,,---,0.00,VWS V14.00,2013-05-24 06:15:00,
2013-05-23 23:16:00,60.9,54.7,29.92,ENE,74,1.0,3.0,80,0.00,,---,0.00,VWS V14.00,2013-05-24 06:16:00,
2013-05-23 23:17:00,60.9,54.7,29.92,ENE,78,0.0,3.0,80,0.00,,---,0.00,VWS V14.00,2013-05-24 06:17:00,
2013-05-23 23:21:00,60.6,54.4,29.92,East,80,0.0,3.0,80,0.00,,---,0.00,VWS V14.00,2013-05-24 06:21:00,
2013-05-23 23:22:00,60.5,54.7,29.92,East,80,0.0,3.0,81,0.00,,---,0.00,VWS V14.00,2013-05-24 06:22:00,
2013-05-23 23:23:00,60.5,54.7,29.92,East,80,0.0,3.0,81,0.00,,---,0.00,VWS V14.00,2013-05-24 06:23:00,
2013-05-23 23:24:00,60.5,54.7,29.92,East,80,0.0,3.0,81,0.00,,---,0.00,VWS V14.00,2013-05-24 06:24:00,
2013-05-23 23:25:00,60.5,54.7,29.92,ENE,75,1.0,3.0,81,0.00,,---,0.00,VWS V14.00,2013-05-24 06:25:00,
2013-05-23 23:26:00,60.4,54.5,29.92,ENE,71,1.0,3.0,81,0.00,,---,0.00,VWS V14.00,2013-05-24 06:26:00,
2013-05-23 23:28:00,60.4,54.5,29.92,NE,50,0.0,3.0,81,0.00,,---,0.00,VWS V14.00,2013-05-24 06:28:00,
2013-05-23 23:29:00,60.3,54.5,29.92,ENE,76,1.0,3.0,81,0.00,,---,0.00,VWS V14.00,2013-05-24 06:29:00,
2013-05-23 23:30:00,60.3,54.5,29.92,East,89,2.0,3.0,81,0.00,,---,0.00,VWS V14.00,2013-05-24 06:30:00,
2013-05-23 23:32:00,60.3,54.5,29.92,East,89,1.0,2.0,81,0.00,,---,0.00,VWS V14.00,2013-05-24 06:32:00,
2013-05-23 23:33:00,60.2,54.4,29.92,East,89,0.0,2.0,81,0.00,,---,0.00,VWS V14.00,2013-05-24 06:33:00,
2013-05-23 23:34:00,60.2,54.4,29.92,East,89,0.0,2.0,81,0.00,,---,0.00,VWS V14.00,2013-05-24 06:34:00,
2013-05-23 23:35:00,60.2,54.4,29.92,East,88,0.0,3.0,81,0.00,,---,0.00,VWS V14.00,2013-05-24 06:35:00,
2013-05-23 23:37:00,60.2,54.7,29.92,East,88,0.0,3.0,82,0.00,,---,0.00,VWS V14.00,2013-05-24 06:37:00,
2013-05-23 23:38:00,60.2,54.7,29.92,East,89,0.0,3.0,82,0.00,,---,0.00,VWS V14.00,2013-05-24 06:38:00,
2013-05-23 23:39:00,60.2,54.7,29.92,East,88,0.0,3.0,82,0.00,,---,0.00,VWS V14.00,2013-05-24 06:39:00,
2013-05-23 23:40:00,60.2,54.7,29.92,East,88,1.0,3.0,82,0.00,,---,0.00,VWS V14.00,2013-05-24 06:40:00,
2013-05-23 23:42:00,60.2,54.7,29.92,East,88,1.0,3.0,82,0.00,,---,0.00,VWS V14.00,2013-05-24 06:42:00,
2013-05-23 23:43:00,60.2,54.7,29.92,East,88,0.0,3.0,82,0.00,,---,0.00,VWS V14.00,2013-05-24 06:43:00,
2013-05-23 23:46:00,60.3,54.8,29.92,East,88,0.0,3.0,82,0.00,,---,0.00,VWS V14.00,2013-05-24 06:46:00,
2013-05-23 23:47:00,60.3,54.8,29.92,East,88,0.0,3.0,82,0.00,,---,0.00,VWS V14.00,2013-05-24 06:47:00,
2013-05-23 23:48:00,60.3,54.5,29.92,ENE,74,2.0,3.0,81,0.00,,---,0.00,VWS V14.00,2013-05-24 06:48:00,
2013-05-23 23:49:00,60.3,54.5,29.92,ENE,64,1.0,3.0,81,0.00,,---,0.00,VWS V14.00,2013-05-24 06:49:00,
2013-05-23 23:51:00,60.3,54.5,29.92,East,82,0.0,3.0,81,0.00,,---,0.00,VWS V14.00,2013-05-24 06:51:00,
2013-05-23 23:53:00,60.3,54.5,29.92,ENE,77,3.0,4.0,81,0.00,,---,0.00,VWS V14.00,2013-05-24 06:53:00,
2013-05-23 23:54:00,60.4,54.5,29.92,East,86,1.0,4.0,81,0.00,,---,0.00,VWS V14.00,2013-05-24 06:54:00,
2013-05-23 23:55:00,60.3,54.5,29.92,East,86,1.0,4.0,81,0.00,,---,0.00,VWS V14.00,2013-05-24 06:55:00,
2013-05-23 23:56:00,60.3,54.5,29.92,East,80,1.0,4.0,81,0.00,,---,0.00,VWS V14.00,2013-05-24 06:56:00,
2013-05-23 23:58:00,60.4,54.5,29.92,East,81,1.0,4.0,81,0.00,,---,0.00,VWS V14.00,2013-05-24 06:58:00,
2013-05-23 23:59:00,60.3,54.5,29.92,East,80,1.0,4.0,81,0.00,,---,0.00,VWS V14.00,2013-05-24 06:59:00,